Time,TemperatureF,DewpointF,PressureIn,WindDirection,WindDirectionDegrees,WindSpeedMPH,WindSpeedGustMPH,Humidity,HourlyPrecipIn,Conditions,Clouds,dailyrainin,SoftwareType,DateUTC
2013-06-20 00:00:00,65.4,62.1,29.91,NNW,348,3.0,3.0,89,0.00,,,0.00,VWS V13.01,2013-06-19 22:00:00,
2013-06-20 00:01:00,65.3,62.0,29.91,NNW,348,5.0,5.0,89,0.00,,,0.00,VWS V13.01,2013-06-19 22:01:00,
2013-06-20 00:02:00,65.3,62.0,29.91,NNW,348,3.0,6.0,89,0.00,,,0.00,VWS V13.01,2013-06-19 22:02:00,
2013-06-20 00:03:00,65.2,61.9,29.91,NNW,348,4.0,6.0,89,0.00,,,0.00,VWS V13.01,2013-06-19 22:03:00,
2013-06-20 00:05:00,65.2,61.9,29.91,NNW,348,1.0,6.0,89,0.00,,,0.00,VWS V13.01,2013-06-19 22:05:00,
2013-06-20 00:06:00,65.1,62.1,29.91,NNW,348,3.0,3.0,90,0.00,,,0.00,VWS V13.01,2013-06-19 22:06:00,
2013-06-20 00:08:00,65.0,62.0,29.91,NNW,344,5.0,6.0,90,0.00,,,0.00,VWS V13.01,2013-06-19 22:08:00,
2013-06-20 00:10:00,65.0,62.0,29.91,NNW,342,2.0,6.0,90,0.00,,,0.00,VWS V13.01,2013-06-19 22:10:00,
2013-06-20 00:11:00,64.9,61.9,29.91,NNW,343,3.0,5.0,90,0.00,,,0.00,VWS V13.01,2013-06-19 22:11:00,
2013-06-20 00:13:00,64.9,61.9,29.91,NNW,343,3.0,6.0,90,0.00,,,0.00,VWS V13.01,2013-06-19 22:13:00,
2013-06-20 00:15:00,64.8,61.8,29.91,NNW,342,4.0,6.0,90,0.00,,,0.00,VWS V13.01,2013-06-19 22:15:00,
2013-06-20 00:16:00,64.8,61.8,29.92,NNW,342,5.0,5.0,90,0.00,,,0.00,VWS V13.01,2013-06-19 22:16:00,
2013-06-20 00:18:00,64.7,62.0,29.92,NW,326,5.0,7.0,91,0.00,,,0.00,VWS V13.01,2013-06-19 22:18:00,
2013-06-20 00:20:00,64.7,61.7,29.92,NW,323,4.0,7.0,90,0.00,,,0.00,VWS V13.01,2013-06-19 22:20:00,
2013-06-20 00:21:00,64.6,61.9,29.92,NW,318,6.0,7.0,91,0.00,,,0.00,VWS V13.01,2013-06-19 22:21:00,
2013-06-20 00:23:00,64.5,61.8,29.92,NW,317,5.0,7.0,91,0.00,,,0.00,VWS V13.01,2013-06-19 22:23:00,
2013-06-20 00:25:00,64.5,61.8,29.92,NW,317,3.0,7.0,91,0.00,,,0.00,VWS V13.01,2013-06-19 22:25:00,
2013-06-20 00:26:00,64.4,61.7,29.92,NW,318,5.0,7.0,91,0.00,,,0.00,VWS V13.01,2013-06-19 22:26:00,
2013-06-20 00:28:00,64.4,61.7,29.92,NW,311,4.0,10.0,91,0.00,,,0.00,VWS V13.01,2013-06-19 22:28:00,
2013-06-20 00:29:00,64.3,61.6,29.92,NW,312,5.0,10.0,91,0.00,,,0.00,VWS V13.01,2013-06-19 22:29:00,
2013-06-20 00:30:00,64.3,61.6,29.92,NW,312,3.0,10.0,91,0.00,,,0.00,VWS V13.01,2013-06-19 22:30:00,
2013-06-20 00:32:00,64.3,61.6,29.92,NW,313,4.0,4.0,91,0.00,,,0.00,VWS V13.01,2013-06-19 22:32:00,
2013-06-20 00:33:00,64.2,61.5,29.92,NW,313,3.0,6.0,91,0.00,,,0.00,VWS V13.01,2013-06-19 22:33:00,
2013-06-20 00:34:00,64.2,61.5,29.92,NW,313,3.0,6.0,91,0.00,,,0.00,VWS V13.01,2013-06-19 22:34:00,
2013-06-20 00:35:00,64.1,61.4,29.92,NW,314,4.0,6.0,91,0.00,,,0.00,VWS V13.01,2013-06-19 22:35:00,
2013-06-20 00:37:00,64.1,61.4,29.92,NW,317,3.0,8.0,91,0.00,,,0.00,VWS V13.01,2013-06-19 22:37:00,
2013-06-20 00:38:00,64.0,61.3,29.92,NW,317,3.0,8.0,91,0.00,,,0.00,VWS V13.01,2013-06-19 22:38:00,
2013-06-20 00:39:00,64.0,61.3,29.92,NW,317,2.0,8.0,91,0.00,,,0.00,VWS V13.01,2013-06-19 22:39:00,
2013-06-20 00:40:00,64.0,61.3,29.92,NW,317,3.0,8.0,91,0.00,,,0.00,VWS V13.01,2013-06-19 22:40:00,
2013-06-20 00:42:00,63.9,61.5,29.92,NW,317,1.0,5.0,92,0.00,,,0.00,VWS V13.01,2013-06-19 22:42:00,
2013-06-20 00:44:00,63.9,61.5,29.92,NW,317,1.0,5.0,92,0.00,,,0.00,VWS V13.01,2013-06-19 22:44:00,
2013-06-20 00:45:00,63.8,61.4,29.92,NW,318,2.0,6.0,92,0.00,,,0.00,VWS V13.01,2013-06-19 22:45:00,
2013-06-20 00:47:00,63.8,61.4,29.92,NW,317,1.0,5.0,92,0.00,,,0.00,VWS V13.01,2013-06-19 22:47:00,
2013-06-20 00:49:00,63.8,61.4,29.92,NW,317,3.0,6.0,92,0.00,,,0.00,VWS V13.01,2013-06-19 22:49:00,
2013-06-20 00:50:00,63.7,61.3,29.92,NW,317,3.0,6.0,92,0.00,,,0.00,VWS V13.01,2013-06-19 22:50:00,
2013-06-20 00:52:00,63.7,61.3,29.92,NW,318,2.0,6.0,92,0.00,,,0.00,VWS V13.01,2013-06-19 22:52:00,
2013-06-20 00:54:00,63.6,61.2,29.92,NW,318,3.0,6.0,92,0.00,,,0.00,VWS V13.01,2013-06-19 22:54:00,
2013-06-20 00:55:00,63.6,61.2,29.92,NW,318,4.0,6.0,92,0.00,,,0.00,VWS V13.01,2013-06-19 22:55:00,
2013-06-20 00:57:00,63.6,61.2,29.92,NW,318,1.0,5.0,92,0.00,,,0.00,VWS V13.01,2013-06-19 22:57:00,
2013-06-20 00:59:00,63.5,61.1,29.92,NW,318,1.0,5.0,92,0.00,,,0.00,VWS V13.01,2013-06-19 22:59:00,
2013-06-20 01:00:00,63.5,61.1,29.91,NW,319,4.0,5.0,92,0.00,,,0.00,VWS V13.01,2013-06-19 23:00:00,
2013-06-20 01:02:00,63.5,61.4,29.91,NW,318,2.0,4.0,93,0.00,,,0.00,VWS V13.01,2013-06-19 23:02:00,
2013-06-20 01:04:00,63.5,61.4,29.91,NW,319,4.0,4.0,93,0.00,,,0.00,VWS V13.01,2013-06-19 23:04:00,
2013-06-20 01:06:00,63.5,61.4,29.91,NW,318,2.0,7.0,93,0.00,,,0.00,VWS V13.01,2013-06-19 23:06:00,
2013-06-20 01:07:00,63.5,61.4,29.91,NW,319,3.0,3.0,93,0.00,,,0.00,VWS V13.01,2013-06-19 23:07:00,
2013-06-20 01:09:00,63.5,61.4,29.91,NW,319,4.0,4.0,93,0.00,,,0.00,VWS V13.01,2013-06-19 23:09:00,
2013-06-20 01:11:00,63.5,61.4,29.91,NW,319,0.0,5.0,93,0.00,,,0.00,VWS V13.01,2013-06-19 23:11:00,
2013-06-20 01:12:00,63.5,61.4,29.91,NW,319,4.0,4.0,93,0.00,,,0.00,VWS V13.01,2013-06-19 23:12:00,
2013-06-20 01:14:00,63.5,61.4,29.91,NW,319,6.0,7.0,93,0.00,,,0.00,VWS V13.01,2013-06-19 23:14:00,
2013-06-20 01:16:00,63.5,61.4,29.91,NW,321,7.0,7.0,93,0.00,,,0.00,VWS V13.01,2013-06-19 23:16:00,
2013-06-20 01:17:00,63.5,61.4,29.91,NW,321,3.0,5.0,93,0.00,,,0.00,VWS V13.01,2013-06-19 23:17:00,
2013-06-20 01:19:00,63.5,61.4,29.91,NW,321,3.0,5.0,93,0.00,,,0.00,VWS V13.01,2013-06-19 23:19:00,
2013-06-20 01:21:00,63.5,61.4,29.91,NW,321,2.0,5.0,93,0.00,,,0.00,VWS V13.01,2013-06-19 23:21:00,
2013-06-20 01:22:00,63.5,61.4,29.91,NW,321,4.0,5.0,93,0.00,,,0.00,VWS V13.01,2013-06-19 23:22:00,
2013-06-20 01:24:00,63.5,61.4,29.91,NW,321,1.0,5.0,93,0.00,,,0.00,VWS V13.01,2013-06-19 23:24:00,
2013-06-20 01:26:00,63.5,61.4,29.91,NW,321,0.0,5.0,93,0.00,,,0.00,VWS V13.01,2013-06-19 23:26:00,
2013-06-20 01:27:00,63.5,61.4,29.91,NW,321,3.0,4.0,93,0.00,,,0.00,VWS V13.01,2013-06-19 23:27:00,
2013-06-20 01:29:00,63.5,61.4,29.91,NW,321,5.0,5.0,93,0.00,,,0.00,VWS V13.01,2013-06-19 23:29:00,
2013-06-20 01:31:00,63.5,61.4,29.89,NW,323,5.0,6.0,93,0.00,,,0.00,VWS V13.01,2013-06-19 23:31:00,
2013-06-20 01:32:00,63.4,61.3,29.89,NW,323,4.0,7.0,93,0.00,,,0.00,VWS V13.01,2013-06-19 23:32:00,
2013-06-20 01:34:00,63.4,61.3,29.89,NW,324,3.0,7.0,93,0.00,,,0.00,VWS V13.01,2013-06-19 23:34:00,
2013-06-20 01:35:00,63.4,61.7,29.89,NW,323,4.0,7.0,94,0.00,,,0.00,VWS V13.01,2013-06-19 23:35:00,
2013-06-20 01:36:00,63.4,61.7,29.89,NW,324,3.0,4.0,94,0.00,,,0.00,VWS V13.01,2013-06-19 23:36:00,
2013-06-20 01:37:00,63.3,61.5,29.89,NNW,327,4.0,11.0,94,0.00,,,0.00,VWS V13.01,2013-06-19 23:37:00,
2013-06-20 01:39:00,63.3,61.5,29.89,NNW,327,9.0,11.0,94,0.00,,,0.00,VWS V13.01,2013-06-19 23:39:00,
2013-06-20 01:40:00,63.3,61.5,29.89,NNW,329,7.0,11.0,94,0.00,,,0.00,VWS V13.01,2013-06-19 23:40:00,
2013-06-20 01:41:00,63.3,61.5,29.89,NNW,336,3.0,6.0,94,0.00,,,0.00,VWS V13.01,2013-06-19 23:41:00,
2013-06-20 01:42:00,63.3,61.5,29.89,NNW,336,1.0,6.0,94,0.00,,,0.00,VWS V13.01,2013-06-19 23:42:00,
2013-06-20 01:44:00,63.2,61.5,29.89,NNW,336,4.0,7.0,94,0.00,,,0.00,VWS V13.01,2013-06-19 23:44:00,
2013-06-20 01:45:00,63.2,61.5,29.89,NNW,336,5.0,7.0,94,0.00,,,0.00,VWS V13.01,2013-06-19 23:45:00,
2013-06-20 01:46:00,63.2,61.5,29.89,NNW,336,5.0,6.0,94,0.00,,,0.00,VWS V13.01,2013-06-19 23:46:00,
2013-06-20 01:47:00,63.2,61.5,29.89,NNW,336,3.0,6.0,94,0.00,,,0.00,VWS V13.01,2013-06-19 23:47:00,
2013-06-20 01:49:00,63.1,61.3,29.89,North,5,5.0,12.0,94,0.00,,,0.00,VWS V13.01,2013-06-19 23:49:00,
2013-06-20 01:50:00,63.1,61.3,29.89,North,360,4.0,12.0,94,0.00,,,0.00,VWS V13.01,2013-06-19 23:50:00,
2013-06-20 01:51:00,63.1,61.3,29.89,North,360,5.0,9.0,94,0.00,,,0.00,VWS V13.01,2013-06-19 23:51:00,
2013-06-20 01:52:00,63.0,61.2,29.89,North,5,7.0,9.0,94,0.00,,,0.00,VWS V13.01,2013-06-19 23:52:00,
2013-06-20 01:54:00,63.0,61.2,29.89,North,5,7.0,11.0,94,0.00,,,0.00,VWS V13.01,2013-06-19 23:54:00,
2013-06-20 01:55:00,63.0,61.2,29.89,North,360,11.0,12.0,94,0.00,,,0.00,VWS V13.01,2013-06-19 23:55:00,
2013-06-20 01:56:00,62.9,61.2,29.89,North,5,5.0,6.0,94,0.00,,,0.00,VWS V13.01,2013-06-19 23:56:00,
2013-06-20 01:57:00,62.9,61.2,29.89,North,355,7.0,12.0,94,0.00,,,0.00,VWS V13.01,2013-06-19 23:57:00,
2013-06-20 01:59:00,62.8,61.0,29.89,North,355,7.0,12.0,94,0.00,,,0.00,VWS V13.01,2013-06-19 23:59:00,
2013-06-20 02:00:00,62.8,61.0,29.88,North,355,2.0,12.0,94,0.00,,,0.00,VWS V13.01,2013-06-20 00:00:00,
2013-06-20 02:01:00,62.8,61.0,29.88,North,355,2.0,4.0,94,0.00,,,0.00,VWS V13.01,2013-06-20 00:01:00,
2013-06-20 02:02:00,62.8,61.0,29.88,North,355,6.0,6.0,94,0.00,,,0.00,VWS V13.01,2013-06-20 00:02:00,
2013-06-20 02:04:00,62.8,61.0,29.88,North,360,3.0,10.0,94,0.00,,,0.00,VWS V13.01,2013-06-20 00:04:00,
2013-06-20 02:05:00,62.7,61.0,29.88,North,5,10.0,10.0,94,0.00,,,0.00,VWS V13.01,2013-06-20 00:05:00,
2013-06-20 02:06:00,62.7,61.0,29.88,North,360,3.0,6.0,94,0.00,,,0.00,VWS V13.01,2013-06-20 00:06:00,
2013-06-20 02:07:00,62.7,61.0,29.88,North,5,7.0,7.0,94,0.00,,,0.00,VWS V13.01,2013-06-20 00:07:00,
2013-06-20 02:09:00,62.7,61.0,29.88,North,5,2.0,7.0,94,0.00,,,0.00,VWS V13.01,2013-06-20 00:09:00,
2013-06-20 02:10:00,62.7,61.0,29.88,North,5,5.0,7.0,94,0.00,,,0.00,VWS V13.01,2013-06-20 00:10:00,
2013-06-20 02:12:00,62.7,61.0,29.88,North,5,4.0,5.0,94,0.00,,,0.00,VWS V13.01,2013-06-20 00:12:00,
2013-06-20 02:14:00,62.7,61.0,29.88,North,360,4.0,9.0,94,0.00,,,0.00,VWS V13.01,2013-06-20 00:14:00,
2013-06-20 02:15:00,62.7,61.2,29.87,North,5,3.0,9.0,95,0.00,,,0.00,VWS V13.01,2013-06-20 00:15:00,
2013-06-20 02:17:00,62.7,61.2,29.87,North,5,4.0,7.0,95,0.00,,,0.00,VWS V13.01,2013-06-20 00:17:00,
2013-06-20 02:19:00,62.8,61.3,29.87,North,11,5.0,8.0,95,0.00,,,0.00,VWS V13.01,2013-06-20 00:19:00,
2013-06-20 02:20:00,62.8,61.3,29.87,North,11,5.0,8.0,95,0.00,,,0.00,VWS V13.01,2013-06-20 00:20:00,
2013-06-20 02:22:00,62.8,61.3,29.87,North,10,3.0,11.0,95,0.00,,,0.00,VWS V13.01,2013-06-20 00:22:00,
2013-06-20 02:24:00,62.8,61.3,29.87,NNE,17,4.0,11.0,95,0.00,,,0.00,VWS V13.01,2013-06-20 00:24:00,
2013-06-20 02:25:00,62.8,61.3,29.87,NNE,17,6.0,11.0,95,0.00,,,0.00,VWS V13.01,2013-06-20 00:25:00,
2013-06-20 02:26:00,62.8,61.3,29.87,NNE,17,5.0,11.0,95,0.00,,,0.00,VWS V13.01,2013-06-20 00:26:00,
2013-06-20 02:27:00,62.8,61.3,29.87,NNE,17,2.0,6.0,95,0.00,,,0.00,VWS V13.01,2013-06-20 00:27:00,
2013-06-20 02:30:00,62.8,61.3,29.87,NNE,17,6.0,6.0,95,0.00,,,0.00,VWS V13.01,2013-06-20 00:30:00,
2013-06-20 02:31:00,62.8,61.3,29.88,NNE,18,3.0,8.0,95,0.00,,,0.00,VWS V13.01,2013-06-20 00:31:00,
2013-06-20 02:32:00,62.8,61.3,29.88,NNE,18,1.0,4.0,95,0.00,,,0.00,VWS V13.01,2013-06-20 00:32:00,
2013-06-20 02:35:00,62.8,61.3,29.88,NNE,18,2.0,4.0,95,0.00,,,0.00,VWS V13.01,2013-06-20 00:35:00,
2013-06-20 02:36:00,62.8,61.3,29.88,NNE,18,2.0,4.0,95,0.00,,,0.00,VWS V13.01,2013-06-20 00:36:00,
2013-06-20 02:37:00,62.8,61.3,29.88,NNE,18,1.0,5.0,95,0.00,,,0.00,VWS V13.01,2013-06-20 00:37:00,
2013-06-20 02:40:00,62.9,61.5,29.88,NNE,18,5.0,5.0,95,0.00,,,0.00,VWS V13.01,2013-06-20 00:40:00,
2013-06-20 02:41:00,62.9,61.5,29.88,NNE,18,5.0,6.0,95,0.00,,,0.00,VWS V13.01,2013-06-20 00:41:00,
2013-06-20 02:43:00,62.9,61.5,29.88,NNE,18,2.0,5.0,95,0.00,,,0.00,VWS V13.01,2013-06-20 00:43:00,
2013-06-20 02:45:00,62.9,61.5,29.88,NNE,18,4.0,6.0,95,0.00,,,0.00,VWS V13.01,2013-06-20 00:45:00,
2013-06-20 02:46:00,62.9,61.5,29.88,NNE,18,3.0,3.0,95,0.00,,,0.00,VWS V13.01,2013-06-20 00:46:00,
2013-06-20 02:48:00,62.9,61.5,29.88,NNE,18,3.0,4.0,95,0.00,,,0.00,VWS V13.01,2013-06-20 00:48:00,
2013-06-20 02:50:00,62.9,61.5,29.88,NNE,18,2.0,4.0,95,0.00,,,0.00,VWS V13.01,2013-06-20 00:50:00,
2013-06-20 02:51:00,62.9,61.5,29.88,NNE,18,2.0,4.0,95,0.00,,,0.00,VWS V13.01,2013-06-20 00:51:00,
2013-06-20 02:53:00,62.9,61.5,29.88,NNE,18,2.0,4.0,95,0.00,,,0.00,VWS V13.01,2013-06-20 00:53:00,
2013-06-20 02:55:00,63.0,61.5,29.88,NNE,18,3.0,4.0,95,0.00,,,0.00,VWS V13.01,2013-06-20 00:55:00,
2013-06-20 02:56:00,63.0,61.5,29.88,NNE,18,2.0,4.0,95,0.00,,,0.00,VWS V13.01,2013-06-20 00:56:00,
2013-06-20 02:58:00,63.0,61.5,29.88,NNE,18,3.0,5.0,95,0.00,,,0.00,VWS V13.01,2013-06-20 00:58:00,
2013-06-20 03:00:00,63.1,61.7,29.88,NNE,18,0.0,5.0,95,0.00,,,0.00,VWS V13.01,2013-06-20 01:00:00,
2013-06-20 03:01:00,63.1,61.7,29.88,NNE,18,4.0,5.0,95,0.00,,,0.00,VWS V13.01,2013-06-20 01:01:00,
2013-06-20 03:03:00,63.1,61.7,29.88,NNE,18,3.0,3.0,95,0.00,,,0.00,VWS V13.01,2013-06-20 01:03:00,
2013-06-20 03:05:00,63.2,61.8,29.88,NNE,18,1.0,4.0,95,0.00,,,0.00,VWS V13.01,2013-06-20 01:05:00,
2013-06-20 03:06:00,63.2,61.8,29.88,NNE,18,3.0,3.0,95,0.00,,,0.00,VWS V13.01,2013-06-20 01:06:00,
2013-06-20 03:08:00,63.2,61.8,29.88,NNE,18,3.0,5.0,95,0.00,,,0.00,VWS V13.01,2013-06-20 01:08:00,
2013-06-20 03:10:00,63.3,61.8,29.88,NNE,18,3.0,5.0,95,0.00,,,0.00,VWS V13.01,2013-06-20 01:10:00,
2013-06-20 03:11:00,63.3,61.8,29.88,NNE,18,2.0,3.0,95,0.00,,,0.00,VWS V13.01,2013-06-20 01:11:00,
2013-06-20 03:13:00,63.3,61.8,29.88,NNE,18,4.0,5.0,95,0.00,,,0.00,VWS V13.01,2013-06-20 01:13:00,
2013-06-20 03:15:00,63.3,61.8,29.88,NNE,18,3.0,5.0,95,0.00,,,0.00,VWS V13.01,2013-06-20 01:15:00,
2013-06-20 03:16:00,63.4,62.0,29.88,NNE,18,4.0,5.0,95,0.00,,,0.00,VWS V13.01,2013-06-20 01:16:00,
2013-06-20 03:18:00,63.4,62.0,29.88,NNE,20,4.0,7.0,95,0.00,,,0.00,VWS V13.01,2013-06-20 01:18:00,
2013-06-20 03:20:00,63.4,62.0,29.88,NNE,26,5.0,9.0,95,0.00,,,0.00,VWS V13.01,2013-06-20 01:20:00,
2013-06-20 03:21:00,63.4,62.0,29.88,NNE,26,3.0,6.0,95,0.00,,,0.00,VWS V13.01,2013-06-20 01:21:00,
2013-06-20 03:23:00,63.4,62.0,29.88,NNE,27,5.0,8.0,95,0.00,,,0.00,VWS V13.01,2013-06-20 01:23:00,
2013-06-20 03:26:00,63.5,62.0,29.88,NNE,28,7.0,8.0,95,0.00,,,0.00,VWS V13.01,2013-06-20 01:26:00,
2013-06-20 03:28:00,63.5,62.0,29.88,NE,34,2.0,10.0,95,0.00,,,0.00,VWS V13.01,2013-06-20 01:28:00,
2013-06-20 03:31:00,63.5,62.0,29.87,NE,36,4.0,10.0,95,0.00,,,0.00,VWS V13.01,2013-06-20 01:31:00,
2013-06-20 03:32:00,63.5,62.0,29.87,NE,36,6.0,6.0,95,0.00,,,0.00,VWS V13.01,2013-06-20 01:32:00,
2013-06-20 03:33:00,63.6,62.2,29.87,NE,37,2.0,7.0,95,0.00,,,0.00,VWS V13.01,2013-06-20 01:33:00,
2013-06-20 03:36:00,63.6,62.2,29.87,NE,51,5.0,11.0,95,0.00,,,0.00,VWS V13.01,2013-06-20 01:36:00,
2013-06-20 03:37:00,63.6,62.2,29.87,NE,55,6.0,10.0,95,0.00,,,0.00,VWS V13.01,2013-06-20 01:37:00,
2013-06-20 03:38:00,63.6,62.2,29.87,NE,55,5.0,10.0,95,0.00,,,0.00,VWS V13.01,2013-06-20 01:38:00,
2013-06-20 03:39:00,63.6,62.2,29.87,NE,55,3.0,10.0,95,0.00,,,0.00,VWS V13.01,2013-06-20 01:39:00,
2013-06-20 03:41:00,63.6,62.2,29.87,NE,53,4.0,10.0,95,0.00,,,0.00,VWS V13.01,2013-06-20 01:41:00,
2013-06-20 03:42:00,63.6,62.2,29.87,NE,53,10.0,10.0,95,0.00,,,0.00,VWS V13.01,2013-06-20 01:42:00,
2013-06-20 03:43:00,63.6,62.2,29.87,NE,55,4.0,10.0,95,0.00,,,0.00,VWS V13.01,2013-06-20 01:43:00,
2013-06-20 03:44:00,63.6,62.2,29.87,NE,55,8.0,10.0,95,0.00,,,0.00,VWS V13.01,2013-06-20 01:44:00,
2013-06-20 03:46:00,63.6,62.2,29.87,ENE,60,6.0,9.0,95,0.00,,,0.00,VWS V13.01,2013-06-20 01:46:00,
2013-06-20 03:47:00,63.6,62.2,29.87,ENE,59,9.0,11.0,95,0.00,,,0.00,VWS V13.01,2013-06-20 01:47:00,
2013-06-20 03:49:00,63.6,62.2,29.87,ENE,60,15.0,16.0,95,0.00,,,0.00,VWS V13.01,2013-06-20 01:49:00,
2013-06-20 03:51:00,63.6,62.2,29.87,ENE,59,8.0,10.0,95,0.00,,,0.00,VWS V13.01,2013-06-20 01:51:00,
2013-06-20 03:52:00,63.6,62.2,29.87,ENE,61,7.0,15.0,95,0.00,,,0.00,VWS V13.01,2013-06-20 01:52:00,
2013-06-20 03:54:00,63.5,62.0,29.87,ENE,65,7.0,15.0,95,0.00,,,0.00,VWS V13.01,2013-06-20 01:54:00,
2013-06-20 03:56:00,63.5,62.0,29.87,ENE,65,6.0,10.0,95,0.00,,,0.00,VWS V13.01,2013-06-20 01:56:00,
2013-06-20 03:57:00,63.5,62.0,29.87,ENE,65,4.0,10.0,95,0.00,,,0.00,VWS V13.01,2013-06-20 01:57:00,
2013-06-20 03:59:00,63.4,62.0,29.87,ENE,60,2.0,10.0,95,0.00,,,0.00,VWS V13.01,2013-06-20 01:59:00,
2013-06-20 04:01:00,63.4,62.0,29.87,ENE,61,6.0,7.0,95,0.00,,,0.00,VWS V13.01,2013-06-20 02:01:00,
2013-06-20 04:02:00,63.4,62.0,29.87,ENE,61,6.0,10.0,95,0.00,,,0.00,VWS V13.01,2013-06-20 02:02:00,
2013-06-20 04:04:00,63.4,62.0,29.87,ENE,61,9.0,11.0,95,0.00,,,0.00,VWS V13.01,2013-06-20 02:04:00,
2013-06-20 04:06:00,63.4,62.0,29.87,ENE,67,6.0,8.0,95,0.00,,,0.00,VWS V13.01,2013-06-20 02:06:00,
2013-06-20 04:07:00,63.4,62.0,29.87,ENE,66,4.0,10.0,95,0.00,,,0.00,VWS V13.01,2013-06-20 02:07:00,
2013-06-20 04:09:00,63.4,62.0,29.87,ENE,66,8.0,11.0,95,0.00,,,0.00,VWS V13.01,2013-06-20 02:09:00,
2013-06-20 04:11:00,63.3,61.8,29.87,ENE,65,7.0,11.0,95,0.00,,,0.00,VWS V13.01,2013-06-20 02:11:00,
2013-06-20 04:12:00,63.3,61.8,29.87,ENE,65,10.0,11.0,95,0.00,,,0.00,VWS V13.01,2013-06-20 02:12:00,
2013-06-20 04:13:00,63.3,61.8,29.87,ENE,68,4.0,11.0,95,0.00,,,0.00,VWS V13.01,2013-06-20 02:13:00,
2013-06-20 04:14:00,63.3,61.8,29.87,ENE,66,6.0,11.0,95,0.00,,,0.00,VWS V13.01,2013-06-20 02:14:00,
2013-06-20 04:16:00,63.2,61.8,29.87,ENE,61,4.0,9.0,95,0.00,,,0.00,VWS V13.01,2013-06-20 02:16:00,
2013-06-20 04:17:00,63.2,61.8,29.87,ENE,61,4.0,9.0,95,0.00,,,0.00,VWS V13.01,2013-06-20 02:17:00,
2013-06-20 04:18:00,63.2,61.8,29.87,ENE,61,5.0,9.0,95,0.00,,,0.00,VWS V13.01,2013-06-20 02:18:00,
2013-06-20 04:19:00,63.2,62.0,29.87,ENE,65,12.0,14.0,96,0.00,,,0.00,VWS V13.01,2013-06-20 02:19:00,
2013-06-20 04:21:00,63.2,62.0,29.87,ENE,65,3.0,4.0,96,0.00,,,0.00,VWS V13.01,2013-06-20 02:21:00,
2013-06-20 04:22:00,63.2,62.0,29.87,ENE,66,7.0,7.0,96,0.00,,,0.00,VWS V13.01,2013-06-20 02:22:00,
2013-06-20 04:23:00,63.2,62.0,29.87,ENE,66,5.0,7.0,96,0.00,,,0.00,VWS V13.01,2013-06-20 02:23:00,
2013-06-20 04:24:00,63.2,62.0,29.87,ENE,66,5.0,10.0,96,0.00,,,0.00,VWS V13.01,2013-06-20 02:24:00,
2013-06-20 04:26:00,63.2,62.0,29.87,ENE,63,4.0,9.0,96,0.00,,,0.00,VWS V13.01,2013-06-20 02:26:00,
2013-06-20 04:27:00,63.2,62.0,29.87,ENE,63,4.0,9.0,96,0.00,,,0.00,VWS V13.01,2013-06-20 02:27:00,
2013-06-20 04:28:00,63.2,62.0,29.87,ENE,63,4.0,9.0,96,0.00,,,0.00,VWS V13.01,2013-06-20 02:28:00,
2013-06-20 04:29:00,63.2,62.0,29.87,ENE,64,7.0,10.0,96,0.00,,,0.00,VWS V13.01,2013-06-20 02:29:00,
2013-06-20 04:31:00,63.2,62.0,29.86,ENE,64,3.0,6.0,96,0.00,,,0.00,VWS V13.01,2013-06-20 02:31:00,
2013-06-20 04:32:00,63.2,62.0,29.86,NE,52,6.0,10.0,96,0.00,,,0.00,VWS V13.01,2013-06-20 02:32:00,
2013-06-20 04:33:00,63.2,62.0,29.86,NE,51,5.0,10.0,96,0.00,,,0.00,VWS V13.01,2013-06-20 02:33:00,
2013-06-20 04:34:00,63.2,62.0,29.86,NE,52,3.0,10.0,96,0.00,,,0.00,VWS V13.01,2013-06-20 02:34:00,
2013-06-20 04:37:00,63.2,62.0,29.86,NE,46,4.0,11.0,96,0.00,,,0.00,VWS V13.01,2013-06-20 02:37:00,
2013-06-20 04:38:00,63.2,62.0,29.86,NE,46,4.0,11.0,96,0.00,,,0.00,VWS V13.01,2013-06-20 02:38:00,
2013-06-20 04:39:00,63.2,62.0,29.86,NE,48,7.0,11.0,96,0.00,,,0.00,VWS V13.01,2013-06-20 02:39:00,
2013-06-20 04:40:00,63.2,62.0,29.86,NE,48,4.0,11.0,96,0.00,,,0.00,VWS V13.01,2013-06-20 02:40:00,
2013-06-20 04:42:00,63.2,62.0,29.86,NE,53,4.0,7.0,96,0.00,,,0.00,VWS V13.01,2013-06-20 02:42:00,
2013-06-20 04:43:00,63.2,62.0,29.86,NE,52,3.0,7.0,96,0.00,,,0.00,VWS V13.01,2013-06-20 02:43:00,
2013-06-20 04:44:00,63.2,62.3,29.86,NE,55,5.0,9.0,97,0.00,,,0.00,VWS V13.01,2013-06-20 02:44:00,
2013-06-20 04:45:00,63.2,62.3,29.87,NE,56,6.0,9.0,97,0.00,,,0.00,VWS V13.01,2013-06-20 02:45:00,
2013-06-20 04:47:00,63.2,62.3,29.87,ENE,59,8.0,12.0,97,0.00,,,0.00,VWS V13.01,2013-06-20 02:47:00,
2013-06-20 04:48:00,63.2,62.3,29.87,ENE,60,5.0,13.0,97,0.00,,,0.00,VWS V13.01,2013-06-20 02:48:00,
2013-06-20 04:50:00,63.2,62.3,29.87,ENE,60,5.0,13.0,97,0.00,,,0.00,VWS V13.01,2013-06-20 02:50:00,
2013-06-20 04:52:00,63.2,62.3,29.87,NE,51,4.0,10.0,97,0.00,,,0.00,VWS V13.01,2013-06-20 02:52:00,
2013-06-20 04:53:00,63.2,62.3,29.87,NE,53,6.0,10.0,97,0.00,,,0.00,VWS V13.01,2013-06-20 02:53:00,
2013-06-20 04:55:00,63.2,62.3,29.87,ENE,60,7.0,11.0,97,0.00,,,0.00,VWS V13.01,2013-06-20 02:55:00,
2013-06-20 04:57:00,63.2,62.3,29.87,ENE,60,5.0,7.0,97,0.00,,,0.00,VWS V13.01,2013-06-20 02:57:00,
2013-06-20 04:58:00,63.2,62.3,29.87,NE,56,4.0,10.0,97,0.00,,,0.00,VWS V13.01,2013-06-20 02:58:00,
2013-06-20 05:00:00,63.2,62.3,29.87,ENE,57,9.0,10.0,97,0.00,,,0.00,VWS V13.01,2013-06-20 03:00:00,
2013-06-20 05:02:00,63.3,62.4,29.86,ENE,59,6.0,7.0,97,0.00,,,0.00,VWS V13.01,2013-06-20 03:02:00,
2013-06-20 05:03:00,63.3,62.4,29.86,ENE,59,4.0,7.0,97,0.00,,,0.00,VWS V13.01,2013-06-20 03:03:00,
2013-06-20 05:05:00,63.3,62.4,29.86,ENE,58,3.0,7.0,97,0.00,,,0.00,VWS V13.01,2013-06-20 03:05:00,
2013-06-20 05:07:00,63.3,62.4,29.86,ENE,57,6.0,6.0,97,0.00,,,0.00,VWS V13.01,2013-06-20 03:07:00,
2013-06-20 05:08:00,63.3,62.4,29.86,ENE,58,3.0,6.0,97,0.00,,,0.00,VWS V13.01,2013-06-20 03:08:00,
2013-06-20 05:10:00,63.2,62.3,29.86,ENE,57,3.0,6.0,97,0.00,,,0.00,VWS V13.01,2013-06-20 03:10:00,
2013-06-20 05:12:00,63.2,62.3,29.86,ENE,57,2.0,6.0,97,0.00,,,0.00,VWS V13.01,2013-06-20 03:12:00,
2013-06-20 05:13:00,63.2,62.3,29.86,ENE,57,3.0,7.0,97,0.00,,,0.00,VWS V13.01,2013-06-20 03:13:00,
2013-06-20 05:15:00,63.2,62.3,29.87,NE,56,6.0,7.0,97,0.00,,,0.00,VWS V13.01,2013-06-20 03:15:00,
2013-06-20 05:17:00,63.2,62.3,29.87,NE,55,4.0,6.0,97,0.00,,,0.00,VWS V13.01,2013-06-20 03:17:00,
2013-06-20 05:18:00,63.2,62.3,29.87,NE,55,2.0,6.0,97,0.00,,,0.00,VWS V13.01,2013-06-20 03:18:00,
2013-06-20 05:19:00,63.2,62.3,29.87,NE,55,4.0,6.0,97,0.00,,,0.00,VWS V13.01,2013-06-20 03:19:00,
2013-06-20 05:20:00,63.2,62.3,29.87,NE,55,3.0,6.0,97,0.00,,,0.00,VWS V13.01,2013-06-20 03:20:00,
2013-06-20 05:22:00,63.2,62.3,29.87,NE,55,3.0,4.0,97,0.00,,,0.00,VWS V13.01,2013-06-20 03:22:00,
2013-06-20 05:23:00,63.2,62.3,29.87,NE,55,3.0,4.0,97,0.00,,,0.00,VWS V13.01,2013-06-20 03:23:00,
2013-06-20 05:24:00,63.2,62.3,29.87,NE,55,2.0,4.0,97,0.00,,,0.00,VWS V13.01,2013-06-20 03:24:00,
2013-06-20 05:25:00,63.2,62.3,29.87,NE,55,2.0,4.0,97,0.00,,,0.00,VWS V13.01,2013-06-20 03:25:00,
2013-06-20 05:27:00,63.2,62.3,29.87,NE,55,2.0,5.0,97,0.00,,,0.00,VWS V13.01,2013-06-20 03:27:00,
2013-06-20 05:28:00,63.2,62.3,29.87,NE,55,4.0,6.0,97,0.00,,,0.00,VWS V13.01,2013-06-20 03:28:00,
2013-06-20 05:29:00,63.2,62.3,29.87,NE,55,3.0,6.0,97,0.00,,,0.00,VWS V13.01,2013-06-20 03:29:00,
2013-06-20 05:30:00,63.2,62.3,29.86,NE,55,4.0,6.0,97,0.00,,,0.00,VWS V13.01,2013-06-20 03:30:00,
2013-06-20 05:33:00,63.2,62.3,29.86,NE,55,3.0,7.0,97,0.00,,,0.00,VWS V13.01,2013-06-20 03:33:00,
2013-06-20 05:34:00,63.2,62.3,29.86,NE,55,3.0,7.0,97,0.00,,,0.00,VWS V13.01,2013-06-20 03:34:00,
2013-06-20 05:35:00,63.1,62.2,29.86,NE,55,5.0,7.0,97,0.00,,,0.00,VWS V13.01,2013-06-20 03:35:00,
2013-06-20 05:36:00,63.2,62.3,29.86,NE,55,3.0,7.0,97,0.00,,,0.00,VWS V13.01,2013-06-20 03:36:00,
2013-06-20 05:38:00,63.1,62.2,29.86,NE,55,6.0,7.0,97,0.00,,,0.00,VWS V13.01,2013-06-20 03:38:00,
2013-06-20 05:39:00,63.1,62.2,29.86,NE,52,5.0,7.0,97,0.00,,,0.00,VWS V13.01,2013-06-20 03:39:00,
2013-06-20 05:40:00,63.1,62.2,29.86,NE,49,8.0,9.0,97,0.00,,,0.00,VWS V13.01,2013-06-20 03:40:00,
2013-06-20 05:41:00,63.1,62.2,29.86,NE,49,5.0,9.0,97,0.00,,,0.00,VWS V13.01,2013-06-20 03:41:00,
2013-06-20 05:43:00,63.0,62.1,29.86,NE,49,5.0,9.0,97,0.00,,,0.00,VWS V13.01,2013-06-20 03:43:00,
2013-06-20 05:44:00,63.0,62.1,29.86,NE,48,4.0,9.0,97,0.00,,,0.00,VWS V13.01,2013-06-20 03:44:00,
2013-06-20 05:45:00,62.9,62.0,29.86,NE,48,4.0,9.0,97,0.00,,,0.00,VWS V13.01,2013-06-20 03:45:00,
2013-06-20 05:46:00,62.9,62.0,29.86,NE,48,5.0,9.0,97,0.00,,,0.00,VWS V13.01,2013-06-20 03:46:00,
2013-06-20 05:48:00,62.9,62.0,29.86,NE,49,6.0,7.0,97,0.00,,,0.00,VWS V13.01,2013-06-20 03:48:00,
2013-06-20 05:49:00,62.9,62.0,29.86,NE,49,3.0,9.0,97,0.00,,,0.00,VWS V13.01,2013-06-20 03:49:00,
2013-06-20 05:50:00,62.9,62.0,29.86,NE,49,4.0,9.0,97,0.00,,,0.00,VWS V13.01,2013-06-20 03:50:00,
2013-06-20 05:51:00,62.8,61.9,29.86,NE,49,6.0,9.0,97,0.00,,,0.00,VWS V13.01,2013-06-20 03:51:00,
2013-06-20 05:53:00,62.9,62.0,29.86,NE,48,1.0,7.0,97,0.00,,,0.00,VWS V13.01,2013-06-20 03:53:00,
2013-06-20 05:54:00,62.9,62.0,29.86,NE,49,4.0,7.0,97,0.00,,,0.00,VWS V13.01,2013-06-20 03:54:00,
2013-06-20 05:55:00,62.9,62.0,29.86,NE,49,4.0,7.0,97,0.00,,,0.00,VWS V13.01,2013-06-20 03:55:00,
2013-06-20 05:56:00,62.9,62.0,29.86,NE,48,5.0,5.0,97,0.00,,,0.00,VWS V13.01,2013-06-20 03:56:00,
2013-06-20 05:58:00,62.9,62.0,29.86,NE,48,3.0,7.0,97,0.00,,,0.00,VWS V13.01,2013-06-20 03:58:00,
2013-06-20 05:59:00,62.8,61.9,29.86,NE,48,4.0,7.0,97,0.00,,,0.00,VWS V13.01,2013-06-20 03:59:00,
2013-06-20 06:00:00,62.8,61.9,29.86,NE,48,6.0,7.0,97,0.00,,,0.00,VWS V13.01,2013-06-20 04:00:00,
2013-06-20 06:01:00,62.8,61.9,29.86,NE,48,4.0,7.0,97,0.00,,,0.00,VWS V13.01,2013-06-20 04:01:00,
2013-06-20 06:02:00,62.9,62.0,29.86,NE,48,7.0,7.0,97,0.00,,,0.00,VWS V13.01,2013-06-20 04:02:00,
2013-06-20 06:06:00,62.8,61.9,29.86,ENE,61,5.0,10.0,97,0.00,,,0.00,VWS V13.01,2013-06-20 04:06:00,
2013-06-20 06:07:00,62.8,61.9,29.86,ENE,61,3.0,5.0,97,0.00,,,0.00,VWS V13.01,2013-06-20 04:07:00,
2013-06-20 06:11:00,62.8,61.9,29.86,ENE,63,7.0,10.0,97,0.00,,,0.00,VWS V13.01,2013-06-20 04:11:00,
2013-06-20 06:12:00,62.8,61.9,29.86,ENE,63,5.0,10.0,97,0.00,,,0.00,VWS V13.01,2013-06-20 04:12:00,
2013-06-20 06:16:00,62.8,61.9,29.86,ENE,63,3.0,10.0,97,0.00,,,0.00,VWS V13.01,2013-06-20 04:16:00,
2013-06-20 06:17:00,62.7,61.8,29.86,ENE,63,5.0,6.0,97,0.00,,,0.00,VWS V13.01,2013-06-20 04:17:00,
2013-06-20 06:21:00,62.7,61.8,29.86,ENE,63,6.0,9.0,97,0.00,,,0.00,VWS V13.01,2013-06-20 04:21:00,
2013-06-20 06:23:00,62.7,61.8,29.86,ENE,63,4.0,6.0,97,0.00,,,0.00,VWS V13.01,2013-06-20 04:23:00,
2013-06-20 06:26:00,62.8,61.9,29.86,ENE,63,4.0,5.0,97,0.00,,,0.00,VWS V13.01,2013-06-20 04:26:00,
2013-06-20 06:28:00,62.8,61.9,29.86,ENE,63,2.0,5.0,97,0.00,,,0.00,VWS V13.01,2013-06-20 04:28:00,
2013-06-20 06:31:00,62.8,61.9,29.86,ENE,63,2.0,3.0,97,0.00,,,0.00,VWS V13.01,2013-06-20 04:31:00,
2013-06-20 06:32:00,62.8,61.9,29.86,ENE,63,3.0,3.0,97,0.00,,,0.00,VWS V13.01,2013-06-20 04:32:00,
2013-06-20 06:33:00,62.9,62.3,29.86,ENE,63,4.0,7.0,98,0.00,,,0.00,VWS V13.01,2013-06-20 04:33:00,
2013-06-20 06:36:00,62.9,62.3,29.86,ENE,63,4.0,6.0,98,0.00,,,0.00,VWS V13.01,2013-06-20 04:36:00,
2013-06-20 06:37:00,62.9,62.0,29.86,ENE,63,3.0,6.0,97,0.00,,,0.00,VWS V13.01,2013-06-20 04:37:00,
2013-06-20 06:38:00,62.9,62.0,29.86,ENE,63,4.0,6.0,97,0.00,,,0.00,VWS V13.01,2013-06-20 04:38:00,
2013-06-20 06:41:00,62.9,62.0,29.86,ENE,63,2.0,2.0,97,0.00,,,0.00,VWS V13.01,2013-06-20 04:41:00,
2013-06-20 06:42:00,63.0,62.1,29.86,ENE,63,4.0,4.0,97,0.00,,,0.00,VWS V13.01,2013-06-20 04:42:00,
2013-06-20 06:43:00,63.0,62.1,29.86,ENE,63,3.0,5.0,97,0.00,,,0.00,VWS V13.01,2013-06-20 04:43:00,
2013-06-20 06:46:00,63.0,62.1,29.86,ENE,63,6.0,6.0,97,0.00,,,0.00,VWS V13.01,2013-06-20 04:46:00,
2013-06-20 06:47:00,63.0,62.1,29.86,ENE,63,7.0,7.0,97,0.00,,,0.00,VWS V13.01,2013-06-20 04:47:00,
2013-06-20 06:48:00,63.0,62.1,29.86,ENE,63,1.0,7.0,97,0.00,,,0.00,VWS V13.01,2013-06-20 04:48:00,
2013-06-20 06:51:00,63.1,62.2,29.86,ENE,63,4.0,6.0,97,0.00,,,0.00,VWS V13.01,2013-06-20 04:51:00,
2013-06-20 06:52:00,63.1,62.2,29.86,ENE,63,5.0,6.0,97,0.00,,,0.00,VWS V13.01,2013-06-20 04:52:00,
2013-06-20 06:53:00,63.1,62.2,29.86,ENE,63,2.0,6.0,97,0.00,,,0.00,VWS V13.01,2013-06-20 04:53:00,
2013-06-20 06:56:00,63.1,62.2,29.86,ENE,63,3.0,5.0,97,0.00,,,0.00,VWS V13.01,2013-06-20 04:56:00,
2013-06-20 06:57:00,63.1,62.2,29.86,ENE,63,3.0,5.0,97,0.00,,,0.00,VWS V13.01,2013-06-20 04:57:00,
2013-06-20 06:58:00,63.1,62.2,29.86,ENE,63,2.0,5.0,97,0.00,,,0.00,VWS V13.01,2013-06-20 04:58:00,
2013-06-20 07:01:00,63.2,62.3,29.87,ENE,63,2.0,4.0,97,0.00,,,0.00,VWS V13.01,2013-06-20 05:01:00,
2013-06-20 07:02:00,63.2,62.3,29.87,ENE,63,4.0,4.0,97,0.00,,,0.00,VWS V13.01,2013-06-20 05:02:00,
2013-06-20 07:03:00,63.2,62.3,29.87,ENE,63,0.0,4.0,97,0.00,,,0.00,VWS V13.01,2013-06-20 05:03:00,
2013-06-20 07:06:00,63.2,62.3,29.87,ENE,63,5.0,5.0,97,0.00,,,0.00,VWS V13.01,2013-06-20 05:06:00,
2013-06-20 07:07:00,63.2,62.3,29.87,ENE,63,3.0,5.0,97,0.00,,,0.00,VWS V13.01,2013-06-20 05:07:00,
2013-06-20 07:08:00,63.2,62.3,29.87,ENE,63,3.0,5.0,97,0.00,,,0.00,VWS V13.01,2013-06-20 05:08:00,
2013-06-20 07:11:00,63.3,62.4,29.87,ENE,63,4.0,5.0,97,0.00,,,0.00,VWS V13.01,2013-06-20 05:11:00,
2013-06-20 07:12:00,63.3,62.4,29.87,ENE,63,2.0,5.0,97,0.00,,,0.00,VWS V13.01,2013-06-20 05:12:00,
2013-06-20 07:13:00,63.3,62.4,29.87,ENE,63,1.0,5.0,97,0.00,,,0.00,VWS V13.01,2013-06-20 05:13:00,
2013-06-20 07:16:00,63.3,62.4,29.86,ENE,63,2.0,4.0,97,0.00,,,0.00,VWS V13.01,2013-06-20 05:16:00,
2013-06-20 07:17:00,63.3,62.4,29.86,ENE,63,2.0,4.0,97,0.00,,,0.00,VWS V13.01,2013-06-20 05:17:00,
2013-06-20 07:18:00,63.4,62.5,29.86,ENE,63,3.0,4.0,97,0.00,,,0.00,VWS V13.01,2013-06-20 05:18:00,
2013-06-20 07:21:00,63.4,62.5,29.86,ENE,63,0.0,2.0,97,0.00,,,0.00,VWS V13.01,2013-06-20 05:21:00,
2013-06-20 07:22:00,63.4,62.5,29.86,ENE,63,0.0,2.0,97,0.00,,,0.00,VWS V13.01,2013-06-20 05:22:00,
2013-06-20 07:23:00,63.4,62.5,29.86,ENE,63,0.0,2.0,97,0.00,,,0.00,VWS V13.01,2013-06-20 05:23:00,
2013-06-20 07:24:00,63.4,62.5,29.86,ENE,63,0.0,2.0,97,0.00,,,0.00,VWS V13.01,2013-06-20 05:24:00,
2013-06-20 07:26:00,63.4,62.5,29.86,ENE,63,0.0,2.0,97,0.00,,,0.00,VWS V13.01,2013-06-20 05:26:00,
2013-06-20 07:27:00,63.4,62.5,29.86,ENE,63,1.0,2.0,97,0.00,,,0.00,VWS V13.01,2013-06-20 05:27:00,
2013-06-20 07:28:00,63.4,62.5,29.86,ENE,63,0.0,2.0,97,0.00,,,0.00,VWS V13.01,2013-06-20 05:28:00,
2013-06-20 07:29:00,63.4,62.5,29.86,ENE,63,0.0,2.0,97,0.00,,,0.00,VWS V13.01,2013-06-20 05:29:00,
2013-06-20 07:31:00,63.5,62.6,29.87,ENE,63,2.0,3.0,97,0.00,,,0.00,VWS V13.01,2013-06-20 05:31:00,
2013-06-20 07:32:00,63.5,62.6,29.87,ENE,63,2.0,3.0,97,0.00,,,0.00,VWS V13.01,2013-06-20 05:32:00,
2013-06-20 07:33:00,63.5,62.6,29.87,ENE,63,4.0,4.0,97,0.00,,,0.00,VWS V13.01,2013-06-20 05:33:00,
2013-06-20 07:34:00,63.5,62.6,29.87,ENE,63,3.0,4.0,97,0.00,,,0.00,VWS V13.01,2013-06-20 05:34:00,
2013-06-20 07:36:00,63.5,62.6,29.87,ENE,63,2.0,5.0,97,0.00,,,0.00,VWS V13.01,2013-06-20 05:36:00,
2013-06-20 07:37:00,63.5,62.6,29.87,ENE,63,1.0,5.0,97,0.00,,,0.00,VWS V13.01,2013-06-20 05:37:00,
2013-06-20 07:38:00,63.6,62.7,29.87,ENE,63,3.0,5.0,97,0.00,,,0.00,VWS V13.01,2013-06-20 05:38:00,
2013-06-20 07:39:00,63.6,62.7,29.87,ENE,63,2.0,6.0,97,0.00,,,0.00,VWS V13.01,2013-06-20 05:39:00,
2013-06-20 07:41:00,63.7,62.8,29.87,ENE,63,3.0,4.0,97,0.00,,,0.00,VWS V13.01,2013-06-20 05:41:00,
2013-06-20 07:42:00,63.7,62.8,29.87,ENE,63,2.0,4.0,97,0.00,,,0.00,VWS V13.01,2013-06-20 05:42:00,
2013-06-20 07:43:00,63.7,62.8,29.87,ENE,63,2.0,4.0,97,0.00,,,0.00,VWS V13.01,2013-06-20 05:43:00,
2013-06-20 07:44:00,63.8,62.9,29.87,ENE,63,0.0,4.0,97,0.00,,,0.00,VWS V13.01,2013-06-20 05:44:00,
2013-06-20 07:46:00,63.8,62.9,29.86,ENE,63,4.0,6.0,97,0.00,,,0.00,VWS V13.01,2013-06-20 05:46:00,
2013-06-20 07:47:00,63.9,63.0,29.86,ENE,63,3.0,6.0,97,0.00,,,0.00,VWS V13.01,2013-06-20 05:47:00,
2013-06-20 07:49:00,63.9,63.0,29.86,ENE,63,5.0,6.0,97,0.00,,,0.00,VWS V13.01,2013-06-20 05:49:00,
2013-06-20 07:51:00,64.0,63.1,29.86,ENE,63,3.0,4.0,97,0.00,,,0.00,VWS V13.01,2013-06-20 05:51:00,
2013-06-20 07:52:00,64.0,63.1,29.86,ENE,63,5.0,5.0,97,0.00,,,0.00,VWS V13.01,2013-06-20 05:52:00,
2013-06-20 07:53:00,64.0,63.1,29.86,ENE,63,4.0,5.0,97,0.00,,,0.00,VWS V13.01,2013-06-20 05:53:00,
2013-06-20 07:54:00,64.0,63.1,29.86,ENE,63,2.0,5.0,97,0.00,,,0.00,VWS V13.01,2013-06-20 05:54:00,
2013-06-20 07:57:00,64.1,63.2,29.86,ENE,61,4.0,6.0,97,0.00,,,0.00,VWS V13.01,2013-06-20 05:57:00,
2013-06-20 07:58:00,64.1,62.9,29.86,ENE,61,4.0,6.0,96,0.00,,,0.00,VWS V13.01,2013-06-20 05:58:00,
2013-06-20 07:59:00,64.1,62.9,29.86,ENE,61,3.0,6.0,96,0.00,,,0.00,VWS V13.01,2013-06-20 05:59:00,
2013-06-20 08:01:00,64.2,63.0,29.85,NE,51,4.0,4.0,96,0.00,,,0.00,VWS V13.01,2013-06-20 06:01:00,
2013-06-20 08:02:00,64.2,63.0,29.85,NE,51,4.0,5.0,96,0.00,,,0.00,VWS V13.01,2013-06-20 06:02:00,
2013-06-20 08:04:00,64.2,63.0,29.85,NE,51,2.0,6.0,96,0.00,,,0.00,VWS V13.01,2013-06-20 06:04:00,
2013-06-20 08:07:00,64.2,63.0,29.85,NE,51,4.0,4.0,96,0.00,,,0.00,VWS V13.01,2013-06-20 06:07:00,
2013-06-20 08:09:00,64.3,63.1,29.85,NE,51,1.0,5.0,96,0.00,,,0.00,VWS V13.01,2013-06-20 06:09:00,
2013-06-20 08:12:00,64.3,63.1,29.85,NE,51,5.0,7.0,96,0.00,,,0.00,VWS V13.01,2013-06-20 06:12:00,
2013-06-20 08:14:00,64.3,63.1,29.85,NE,50,4.0,7.0,96,0.00,,,0.00,VWS V13.01,2013-06-20 06:14:00,
2013-06-20 08:15:00,64.3,63.1,29.86,NE,51,4.0,7.0,96,0.00,,,0.00,VWS V13.01,2013-06-20 06:15:00,
2013-06-20 08:17:00,64.4,63.2,29.86,NE,51,3.0,4.0,96,0.00,,,0.00,VWS V13.01,2013-06-20 06:17:00,
2013-06-20 08:19:00,64.4,63.2,29.86,NE,51,2.0,6.0,96,0.00,,,0.00,VWS V13.01,2013-06-20 06:19:00,
2013-06-20 08:20:00,64.4,63.2,29.86,NE,50,4.0,6.0,96,0.00,,,0.00,VWS V13.01,2013-06-20 06:20:00,
2013-06-20 08:22:00,64.5,63.3,29.86,NE,51,4.0,4.0,96,0.00,,,0.00,VWS V13.01,2013-06-20 06:22:00,
2013-06-20 08:24:00,64.5,63.3,29.86,NE,51,4.0,6.0,96,0.00,,,0.00,VWS V13.01,2013-06-20 06:24:00,
2013-06-20 08:25:00,64.6,63.4,29.86,NE,51,4.0,6.0,96,0.00,,,0.00,VWS V13.01,2013-06-20 06:25:00,
2013-06-20 08:27:00,64.6,63.1,29.86,NE,44,8.0,10.0,95,0.00,,,0.00,VWS V13.01,2013-06-20 06:27:00,
2013-06-20 08:29:00,64.7,63.2,29.86,NE,45,2.0,10.0,95,0.00,,,0.00,VWS V13.01,2013-06-20 06:29:00,
2013-06-20 08:30:00,64.7,63.2,29.86,NE,48,4.0,10.0,95,0.00,,,0.00,VWS V13.01,2013-06-20 06:30:00,
2013-06-20 08:32:00,64.7,63.2,29.86,NE,48,4.0,6.0,95,0.00,,,0.00,VWS V13.01,2013-06-20 06:32:00,
2013-06-20 08:33:00,64.7,63.2,29.86,NE,49,2.0,6.0,95,0.00,,,0.00,VWS V13.01,2013-06-20 06:33:00,
2013-06-20 08:34:00,64.8,63.3,29.86,NE,48,7.0,7.0,95,0.00,,,0.00,VWS V13.01,2013-06-20 06:34:00,
2013-06-20 08:35:00,64.8,63.3,29.86,NE,45,3.0,8.0,95,0.00,,,0.00,VWS V13.01,2013-06-20 06:35:00,
2013-06-20 08:37:00,64.8,63.3,29.86,NE,44,6.0,6.0,95,0.00,,,0.00,VWS V13.01,2013-06-20 06:37:00,
2013-06-20 08:38:00,64.9,63.4,29.86,NE,44,4.0,7.0,95,0.00,,,0.00,VWS V13.01,2013-06-20 06:38:00,
2013-06-20 08:39:00,64.9,63.4,29.86,NE,45,3.0,9.0,95,0.00,,,0.00,VWS V13.01,2013-06-20 06:39:00,
2013-06-20 08:40:00,64.9,63.4,29.86,NE,44,4.0,9.0,95,0.00,,,0.00,VWS V13.01,2013-06-20 06:40:00,
2013-06-20 08:42:00,65.0,63.5,29.86,NE,48,4.0,9.0,95,0.00,,,0.00,VWS V13.01,2013-06-20 06:42:00,
2013-06-20 08:43:00,65.0,63.5,29.86,NE,48,4.0,9.0,95,0.00,,,0.00,VWS V13.01,2013-06-20 06:43:00,
2013-06-20 08:44:00,65.0,63.5,29.86,NE,48,7.0,9.0,95,0.00,,,0.00,VWS V13.01,2013-06-20 06:44:00,
2013-06-20 08:45:00,65.1,63.3,29.87,NE,48,5.0,9.0,94,0.00,,,0.00,VWS V13.01,2013-06-20 06:45:00,
2013-06-20 08:47:00,65.2,63.4,29.87,NE,49,2.0,4.0,94,0.00,,,0.00,VWS V13.01,2013-06-20 06:47:00,
2013-06-20 08:48:00,65.1,63.3,29.87,NE,49,3.0,4.0,94,0.00,,,0.00,VWS V13.01,2013-06-20 06:48:00,
2013-06-20 08:49:00,65.2,63.4,29.87,NE,48,0.0,4.0,94,0.00,,,0.00,VWS V13.01,2013-06-20 06:49:00,
2013-06-20 08:50:00,65.2,63.4,29.87,NE,48,2.0,4.0,94,0.00,,,0.00,VWS V13.01,2013-06-20 06:50:00,
2013-06-20 08:52:00,65.3,63.5,29.87,NE,49,2.0,3.0,94,0.00,,,0.00,VWS V13.01,2013-06-20 06:52:00,
2013-06-20 08:53:00,65.3,63.5,29.87,NE,49,2.0,3.0,94,0.00,,,0.00,VWS V13.01,2013-06-20 06:53:00,
2013-06-20 08:55:00,65.4,63.6,29.87,NE,48,3.0,4.0,94,0.00,,,0.00,VWS V13.01,2013-06-20 06:55:00,
2013-06-20 08:56:00,65.4,63.6,29.87,NE,49,3.0,4.0,94,0.00,,,0.00,VWS V13.01,2013-06-20 06:56:00,
2013-06-20 08:58:00,65.5,63.7,29.87,NE,49,5.0,6.0,94,0.00,,,0.00,VWS V13.01,2013-06-20 06:58:00,
2013-06-20 09:00:00,65.6,63.8,29.87,NE,48,2.0,6.0,94,0.00,,,0.00,VWS V13.01,2013-06-20 07:00:00,
2013-06-20 09:01:00,65.6,63.8,29.87,NE,49,6.0,6.0,94,0.00,,,0.00,VWS V13.01,2013-06-20 07:01:00,
2013-06-20 09:03:00,65.7,63.6,29.87,NE,48,4.0,6.0,93,0.00,,,0.00,VWS V13.01,2013-06-20 07:03:00,
2013-06-20 09:05:00,65.8,63.7,29.87,NE,49,2.0,6.0,93,0.00,,,0.00,VWS V13.01,2013-06-20 07:05:00,
2013-06-20 09:06:00,65.9,63.8,29.87,NE,49,2.0,2.0,93,0.00,,,0.00,VWS V13.01,2013-06-20 07:06:00,
2013-06-20 09:08:00,65.9,63.8,29.87,NE,49,5.0,7.0,93,0.00,,,0.00,VWS V13.01,2013-06-20 07:08:00,
2013-06-20 09:10:00,66.1,64.0,29.87,NE,49,2.0,7.0,93,0.00,,,0.00,VWS V13.01,2013-06-20 07:10:00,
2013-06-20 09:11:00,66.1,64.0,29.87,NE,49,2.0,6.0,93,0.00,,,0.00,VWS V13.01,2013-06-20 07:11:00,
2013-06-20 09:13:00,66.2,64.1,29.87,NE,49,2.0,6.0,93,0.00,,,0.00,VWS V13.01,2013-06-20 07:13:00,
2013-06-20 09:14:00,66.2,64.1,29.87,NE,49,0.0,6.0,93,0.00,,,0.00,VWS V13.01,2013-06-20 07:14:00,
2013-06-20 09:15:00,66.3,63.9,29.88,NE,51,4.0,7.0,92,0.00,,,0.00,VWS V13.01,2013-06-20 07:15:00,
2013-06-20 09:16:00,66.4,64.0,29.88,NE,56,0.0,6.0,92,0.00,,,0.00,VWS V13.01,2013-06-20 07:16:00,
2013-06-20 09:18:00,66.5,64.1,29.88,NE,56,7.0,7.0,92,0.00,,,0.00,VWS V13.01,2013-06-20 07:18:00,
2013-06-20 09:19:00,66.5,64.1,29.88,ENE,57,8.0,10.0,92,0.00,,,0.00,VWS V13.01,2013-06-20 07:19:00,
2013-06-20 09:20:00,66.5,64.1,29.88,ENE,57,5.0,10.0,92,0.00,,,0.00,VWS V13.01,2013-06-20 07:20:00,
2013-06-20 09:21:00,66.6,64.2,29.88,NE,56,5.0,5.0,92,0.00,,,0.00,VWS V13.01,2013-06-20 07:21:00,
2013-06-20 09:23:00,66.6,63.9,29.88,ENE,57,4.0,9.0,91,0.00,,,0.00,VWS V13.01,2013-06-20 07:23:00,
2013-06-20 09:24:00,66.6,63.9,29.88,ENE,57,7.0,9.0,91,0.00,,,0.00,VWS V13.01,2013-06-20 07:24:00,
2013-06-20 09:25:00,66.7,64.0,29.88,ENE,57,6.0,9.0,91,0.00,,,0.00,VWS V13.01,2013-06-20 07:25:00,
2013-06-20 09:27:00,66.7,64.0,29.88,ENE,57,2.0,6.0,91,0.00,,,0.00,VWS V13.01,2013-06-20 07:27:00,
2013-06-20 09:28:00,66.8,64.1,29.88,ENE,57,1.0,6.0,91,0.00,,,0.00,VWS V13.01,2013-06-20 07:28:00,
2013-06-20 09:29:00,66.8,64.1,29.88,ENE,57,0.0,6.0,91,0.00,,,0.00,VWS V13.01,2013-06-20 07:29:00,
2013-06-20 09:30:00,66.9,64.2,29.88,ENE,57,4.0,6.0,91,0.00,,,0.00,VWS V13.01,2013-06-20 07:30:00,
2013-06-20 09:32:00,67.1,64.4,29.88,ENE,57,2.0,5.0,91,0.00,,,0.00,VWS V13.01,2013-06-20 07:32:00,
2013-06-20 09:33:00,67.1,64.4,29.88,ENE,57,0.0,7.0,91,0.00,,,0.00,VWS V13.01,2013-06-20 07:33:00,
2013-06-20 09:34:00,67.2,64.5,29.88,ENE,57,3.0,7.0,91,0.00,,,0.00,VWS V13.01,2013-06-20 07:34:00,
2013-06-20 09:35:00,67.3,64.6,29.88,ENE,57,3.0,7.0,91,0.00,,,0.00,VWS V13.01,2013-06-20 07:35:00,
2013-06-20 09:37:00,67.4,64.4,29.88,ENE,57,0.0,3.0,90,0.00,,,0.00,VWS V13.01,2013-06-20 07:37:00,
2013-06-20 09:38:00,67.5,64.5,29.88,ENE,59,0.0,6.0,90,0.00,,,0.00,VWS V13.01,2013-06-20 07:38:00,
2013-06-20 09:39:00,67.5,64.5,29.88,ENE,59,0.0,6.0,90,0.00,,,0.00,VWS V13.01,2013-06-20 07:39:00,
2013-06-20 09:40:00,67.6,64.6,29.88,ENE,59,6.0,7.0,90,0.00,,,0.00,VWS V13.01,2013-06-20 07:40:00,
2013-06-20 09:42:00,67.7,64.7,29.88,ENE,59,10.0,10.0,90,0.00,,,0.00,VWS V13.01,2013-06-20 07:42:00,
2013-06-20 09:43:00,67.8,64.8,29.88,ENE,59,0.0,10.0,90,0.00,,,0.00,VWS V13.01,2013-06-20 07:43:00,
2013-06-20 09:44:00,67.9,64.9,29.88,ENE,59,5.0,10.0,90,0.00,,,0.00,VWS V13.01,2013-06-20 07:44:00,
2013-06-20 09:46:00,67.9,64.5,29.88,ENE,59,0.0,10.0,89,0.00,,,0.00,VWS V13.01,2013-06-20 07:46:00,
2013-06-20 09:47:00,68.0,64.6,29.88,ENE,59,7.0,9.0,89,0.00,,,0.00,VWS V13.01,2013-06-20 07:47:00,
2013-06-20 09:48:00,68.1,64.7,29.88,ENE,59,2.0,9.0,89,0.00,,,0.00,VWS V13.01,2013-06-20 07:48:00,
2013-06-20 09:49:00,68.1,64.7,29.88,ENE,59,0.0,9.0,89,0.00,,,0.00,VWS V13.01,2013-06-20 07:49:00,
2013-06-20 09:51:00,68.3,64.9,29.88,ENE,59,0.0,9.0,89,0.00,,,0.00,VWS V13.01,2013-06-20 07:51:00,
2013-06-20 09:53:00,68.4,65.0,29.88,ENE,59,0.0,5.0,89,0.00,,,0.00,VWS V13.01,2013-06-20 07:53:00,
2013-06-20 09:54:00,68.4,65.0,29.88,ENE,59,4.0,5.0,89,0.00,,,0.00,VWS V13.01,2013-06-20 07:54:00,
2013-06-20 09:56:00,68.5,64.8,29.88,ENE,59,1.0,1.0,88,0.00,,,0.00,VWS V13.01,2013-06-20 07:56:00,
2013-06-20 09:58:00,68.6,64.9,29.88,ENE,59,0.0,4.0,88,0.00,,,0.00,VWS V13.01,2013-06-20 07:58:00,
2013-06-20 09:59:00,68.6,64.9,29.88,ENE,59,2.0,4.0,88,0.00,,,0.00,VWS V13.01,2013-06-20 07:59:00,
2013-06-20 10:01:00,68.8,65.1,29.87,ENE,59,4.0,4.0,88,0.00,,,0.00,VWS V13.01,2013-06-20 08:01:00,
2013-06-20 10:03:00,68.8,65.1,29.87,ENE,59,4.0,6.0,88,0.00,,,0.00,VWS V13.01,2013-06-20 08:03:00,
2013-06-20 10:04:00,68.9,65.2,29.87,ENE,59,6.0,6.0,88,0.00,,,0.00,VWS V13.01,2013-06-20 08:04:00,
2013-06-20 10:06:00,68.9,65.2,29.87,ENE,59,3.0,6.0,88,0.00,,,0.00,VWS V13.01,2013-06-20 08:06:00,
2013-06-20 10:08:00,69.0,65.3,29.87,ENE,60,6.0,10.0,88,0.00,,,0.00,VWS V13.01,2013-06-20 08:08:00,
2013-06-20 10:09:00,69.0,65.0,29.87,ENE,60,5.0,10.0,87,0.00,,,0.00,VWS V13.01,2013-06-20 08:09:00,
2013-06-20 10:11:00,69.0,65.0,29.87,ENE,61,1.0,4.0,87,0.00,,,0.00,VWS V13.01,2013-06-20 08:11:00,
2013-06-20 10:13:00,69.1,65.1,29.87,ENE,60,3.0,5.0,87,0.00,,,0.00,VWS V13.01,2013-06-20 08:13:00,
2013-06-20 10:14:00,69.1,65.1,29.87,ENE,61,4.0,5.0,87,0.00,,,0.00,VWS V13.01,2013-06-20 08:14:00,
2013-06-20 10:16:00,69.1,65.1,29.86,ENE,61,2.0,6.0,87,0.00,,,0.00,VWS V13.01,2013-06-20 08:16:00,
2013-06-20 10:18:00,69.2,65.2,29.86,ENE,60,0.0,6.0,87,0.00,,,0.00,VWS V13.01,2013-06-20 08:18:00,
2013-06-20 10:19:00,69.2,65.2,29.86,ENE,61,3.0,6.0,87,0.00,,,0.00,VWS V13.01,2013-06-20 08:19:00,
2013-06-20 10:22:00,69.2,65.2,29.86,ENE,61,7.0,7.0,87,0.00,,,0.00,VWS V13.01,2013-06-20 08:22:00,
2013-06-20 10:23:00,69.2,65.2,29.86,ENE,61,3.0,7.0,87,0.00,,,0.00,VWS V13.01,2013-06-20 08:23:00,
2013-06-20 10:24:00,69.2,65.2,29.86,ENE,61,4.0,7.0,87,0.00,,,0.00,VWS V13.01,2013-06-20 08:24:00,
2013-06-20 10:27:00,69.2,65.2,29.86,ENE,61,1.0,5.0,87,0.00,,,0.00,VWS V13.01,2013-06-20 08:27:00,
2013-06-20 10:28:00,69.2,65.2,29.86,ENE,61,1.0,5.0,87,0.00,,,0.00,VWS V13.01,2013-06-20 08:28:00,
2013-06-20 10:29:00,69.2,65.2,29.86,ENE,61,0.0,5.0,87,0.00,,,0.00,VWS V13.01,2013-06-20 08:29:00,
2013-06-20 10:32:00,69.4,65.4,29.86,ENE,61,6.0,6.0,87,0.00,,,0.00,VWS V13.01,2013-06-20 08:32:00,
2013-06-20 10:33:00,69.4,65.4,29.86,ENE,61,3.0,7.0,87,0.00,,,0.00,VWS V13.01,2013-06-20 08:33:00,
2013-06-20 10:34:00,69.4,65.4,29.86,ENE,61,2.0,7.0,87,0.00,,,0.00,VWS V13.01,2013-06-20 08:34:00,
2013-06-20 10:37:00,69.4,65.4,29.86,ENE,60,4.0,5.0,87,0.00,,,0.00,VWS V13.01,2013-06-20 08:37:00,
2013-06-20 10:38:00,69.3,65.3,29.86,ENE,61,4.0,9.0,87,0.00,,,0.00,VWS V13.01,2013-06-20 08:38:00,
2013-06-20 10:39:00,69.3,65.3,29.86,ENE,61,4.0,9.0,87,0.00,,,0.00,VWS V13.01,2013-06-20 08:39:00,
2013-06-20 10:42:00,69.3,65.3,29.86,ENE,61,3.0,3.0,87,0.00,,,0.00,VWS V13.01,2013-06-20 08:42:00,
2013-06-20 10:44:00,69.3,65.3,29.86,ENE,61,2.0,6.0,87,0.00,,,0.00,VWS V13.01,2013-06-20 08:44:00,
2013-06-20 10:45:00,69.3,65.3,29.86,ENE,60,2.0,6.0,87,0.00,,,0.00,VWS V13.01,2013-06-20 08:45:00,
2013-06-20 10:47:00,69.3,65.3,29.86,ENE,60,3.0,5.0,87,0.00,,,0.00,VWS V13.01,2013-06-20 08:47:00,
2013-06-20 10:49:00,69.3,65.3,29.86,ENE,61,1.0,5.0,87,0.00,,,0.00,VWS V13.01,2013-06-20 08:49:00,
2013-06-20 10:50:00,69.3,65.3,29.86,ENE,61,4.0,7.0,87,0.00,,,0.00,VWS V13.01,2013-06-20 08:50:00,
2013-06-20 10:52:00,69.3,65.3,29.86,ENE,61,2.0,4.0,87,0.00,,,0.00,VWS V13.01,2013-06-20 08:52:00,
2013-06-20 10:54:00,69.3,65.3,29.86,ENE,61,3.0,4.0,87,0.00,,,0.00,VWS V13.01,2013-06-20 08:54:00,
2013-06-20 10:55:00,69.3,65.3,29.86,ENE,60,4.0,4.0,87,0.00,,,0.00,VWS V13.01,2013-06-20 08:55:00,
2013-06-20 10:57:00,69.4,65.4,29.86,ENE,61,0.0,2.0,87,0.00,,,0.00,VWS V13.01,2013-06-20 08:57:00,
2013-06-20 10:59:00,69.3,65.3,29.86,ENE,61,0.0,3.0,87,0.00,,,0.00,VWS V13.01,2013-06-20 08:59:00,
2013-06-20 11:00:00,69.4,65.4,29.86,ENE,60,3.0,3.0,87,0.00,,,0.00,VWS V13.01,2013-06-20 09:00:00,
2013-06-20 11:02:00,69.5,65.5,29.86,ENE,60,4.0,5.0,87,0.00,,,0.00,VWS V13.01,2013-06-20 09:02:00,
2013-06-20 11:04:00,69.5,65.5,29.86,ENE,61,5.0,6.0,87,0.00,,,0.00,VWS V13.01,2013-06-20 09:04:00,
2013-06-20 11:05:00,69.4,65.4,29.86,ENE,60,3.0,6.0,87,0.00,,,0.00,VWS V13.01,2013-06-20 09:05:00,
2013-06-20 11:07:00,69.5,65.5,29.86,ENE,60,3.0,4.0,87,0.00,,,0.00,VWS V13.01,2013-06-20 09:07:00,
2013-06-20 11:09:00,69.5,65.5,29.86,ENE,60,2.0,4.0,87,0.00,,,0.00,VWS V13.01,2013-06-20 09:09:00,
2013-06-20 11:10:00,69.5,65.5,29.86,ENE,61,3.0,5.0,87,0.00,,,0.00,VWS V13.01,2013-06-20 09:10:00,
2013-06-20 11:12:00,69.5,65.5,29.86,ENE,60,0.0,2.0,87,0.00,,,0.00,VWS V13.01,2013-06-20 09:12:00,
2013-06-20 11:14:00,69.6,65.6,29.86,ENE,60,3.0,4.0,87,0.00,,,0.00,VWS V13.01,2013-06-20 09:14:00,
2013-06-20 11:15:00,69.6,65.6,29.86,ENE,61,0.0,4.0,87,0.00,,,0.00,VWS V13.01,2013-06-20 09:15:00,
2013-06-20 11:17:00,69.6,65.6,29.86,ENE,61,5.0,5.0,87,0.00,,,0.00,VWS V13.01,2013-06-20 09:17:00,
2013-06-20 11:19:00,69.6,65.6,29.86,ENE,61,0.0,5.0,87,0.00,,,0.00,VWS V13.01,2013-06-20 09:19:00,
2013-06-20 11:20:00,69.6,65.6,29.86,ENE,60,3.0,5.0,87,0.00,,,0.00,VWS V13.01,2013-06-20 09:20:00,
2013-06-20 11:22:00,69.6,65.6,29.86,ENE,60,1.0,5.0,87,0.00,,,0.00,VWS V13.01,2013-06-20 09:22:00,
2013-06-20 11:24:00,69.6,65.6,29.86,ENE,61,3.0,5.0,87,0.00,,,0.00,VWS V13.01,2013-06-20 09:24:00,
2013-06-20 11:25:00,69.6,65.6,29.86,ENE,60,1.0,5.0,87,0.00,,,0.00,VWS V13.01,2013-06-20 09:25:00,
2013-06-20 11:28:00,69.7,65.7,29.86,ENE,60,0.0,4.0,87,0.00,,,0.00,VWS V13.01,2013-06-20 09:28:00,
2013-06-20 11:29:00,69.7,65.7,29.86,ENE,61,0.0,4.0,87,0.00,,,0.00,VWS V13.01,2013-06-20 09:29:00,
2013-06-20 11:30:00,69.8,65.8,29.86,ENE,60,0.0,4.0,87,0.00,,,0.00,VWS V13.01,2013-06-20 09:30:00,
2013-06-20 11:33:00,69.8,65.8,29.86,ENE,61,0.0,3.0,87,0.00,,,0.00,VWS V13.01,2013-06-20 09:33:00,
2013-06-20 11:34:00,69.9,65.9,29.86,ENE,60,0.0,3.0,87,0.00,,,0.00,VWS V13.01,2013-06-20 09:34:00,
2013-06-20 11:35:00,69.9,65.9,29.86,ENE,61,0.0,3.0,87,0.00,,,0.00,VWS V13.01,2013-06-20 09:35:00,
2013-06-20 11:38:00,70.0,66.0,29.86,ENE,61,0.0,1.0,87,0.00,,,0.00,VWS V13.01,2013-06-20 09:38:00,
2013-06-20 11:40:00,70.0,65.6,29.86,ENE,61,0.0,1.0,86,0.00,,,0.00,VWS V13.01,2013-06-20 09:40:00,
2013-06-20 11:41:00,70.1,65.7,29.86,ENE,61,0.0,1.0,86,0.00,,,0.00,VWS V13.01,2013-06-20 09:41:00,
2013-06-20 11:43:00,70.2,66.2,29.86,ENE,61,0.0,1.0,87,0.00,,,0.00,VWS V13.01,2013-06-20 09:43:00,
2013-06-20 11:45:00,70.3,66.2,29.86,ENE,61,0.0,5.0,87,0.00,,,0.00,VWS V13.01,2013-06-20 09:45:00,
2013-06-20 11:46:00,70.3,66.2,29.86,ENE,61,4.0,5.0,87,0.00,,,0.00,VWS V13.01,2013-06-20 09:46:00,
2013-06-20 11:48:00,70.5,66.1,29.86,ENE,61,3.0,4.0,86,0.00,,,0.00,VWS V13.01,2013-06-20 09:48:00,
2013-06-20 11:50:00,70.6,66.2,29.86,ENE,61,2.0,4.0,86,0.00,,,0.00,VWS V13.01,2013-06-20 09:50:00,
2013-06-20 11:51:00,70.7,66.3,29.86,ENE,60,0.0,4.0,86,0.00,,,0.00,VWS V13.01,2013-06-20 09:51:00,
2013-06-20 11:53:00,70.8,66.4,29.86,ENE,61,0.0,1.0,86,0.00,,,0.00,VWS V13.01,2013-06-20 09:53:00,
2013-06-20 11:55:00,71.0,66.6,29.86,ENE,61,0.0,1.0,86,0.00,,,0.00,VWS V13.01,2013-06-20 09:55:00,
2013-06-20 11:56:00,71.0,66.6,29.86,ENE,61,0.0,1.0,86,0.00,,,0.00,VWS V13.01,2013-06-20 09:56:00,
2013-06-20 11:58:00,71.3,66.9,29.86,ENE,60,0.0,3.0,86,0.00,,,0.00,VWS V13.01,2013-06-20 09:58:00,
2013-06-20 12:00:00,71.3,66.6,29.86,ENE,61,0.0,4.0,85,0.00,,,0.00,VWS V13.01,2013-06-20 10:00:00,
2013-06-20 12:01:00,71.3,66.6,29.87,ENE,61,1.0,4.0,85,0.00,,,0.00,VWS V13.01,2013-06-20 10:01:00,
2013-06-20 12:03:00,71.5,66.8,29.87,ENE,61,0.0,1.0,85,0.00,,,0.00,VWS V13.01,2013-06-20 10:03:00,
2013-06-20 12:05:00,71.7,66.9,29.87,ENE,60,0.0,1.0,85,0.00,,,0.00,VWS V13.01,2013-06-20 10:05:00,
2013-06-20 12:06:00,71.7,66.9,29.87,ENE,60,2.0,2.0,85,0.00,,,0.00,VWS V13.01,2013-06-20 10:06:00,
2013-06-20 12:08:00,71.9,66.8,29.87,ENE,61,0.0,3.0,84,0.00,,,0.00,VWS V13.01,2013-06-20 10:08:00,
2013-06-20 12:10:00,72.0,66.9,29.87,ENE,61,4.0,4.0,84,0.00,,,0.00,VWS V13.01,2013-06-20 10:10:00,
2013-06-20 12:11:00,72.0,66.9,29.87,ENE,61,0.0,4.0,84,0.00,,,0.00,VWS V13.01,2013-06-20 10:11:00,
2013-06-20 12:13:00,72.2,67.1,29.87,ENE,64,1.0,5.0,84,0.00,,,0.00,VWS V13.01,2013-06-20 10:13:00,
2013-06-20 12:15:00,72.3,67.2,29.87,ENE,74,4.0,5.0,84,0.00,,,0.00,VWS V13.01,2013-06-20 10:15:00,
2013-06-20 12:16:00,72.3,66.8,29.86,ENE,76,4.0,5.0,83,0.00,,,0.00,VWS V13.01,2013-06-20 10:16:00,
2013-06-20 12:18:00,72.5,67.1,29.86,ENE,76,1.0,5.0,83,0.00,,,0.00,VWS V13.01,2013-06-20 10:18:00,
2013-06-20 12:20:00,72.6,67.2,29.86,ENE,76,3.0,5.0,83,0.00,,,0.00,VWS V13.01,2013-06-20 10:20:00,
2013-06-20 12:21:00,72.7,67.2,29.86,ENE,76,0.0,5.0,83,0.00,,,0.00,VWS V13.01,2013-06-20 10:21:00,
2013-06-20 12:23:00,72.8,67.3,29.86,ENE,76,0.0,3.0,83,0.00,,,0.00,VWS V13.01,2013-06-20 10:23:00,
2013-06-20 12:25:00,73.0,67.5,29.86,ENE,78,1.0,6.0,83,0.00,,,0.00,VWS V13.01,2013-06-20 10:25:00,
2013-06-20 12:26:00,73.0,67.5,29.86,ENE,78,1.0,2.0,83,0.00,,,0.00,VWS V13.01,2013-06-20 10:26:00,
2013-06-20 12:28:00,73.1,67.6,29.86,ENE,78,0.0,4.0,83,0.00,,,0.00,VWS V13.01,2013-06-20 10:28:00,
2013-06-20 12:30:00,73.3,67.8,29.86,ENE,78,0.0,4.0,83,0.00,,,0.00,VWS V13.01,2013-06-20 10:30:00,
2013-06-20 12:31:00,73.3,67.8,29.86,ENE,78,0.0,0.0,83,0.00,,,0.00,VWS V13.01,2013-06-20 10:31:00,
2013-06-20 12:33:00,73.5,67.7,29.86,ENE,78,2.0,2.0,82,0.00,,,0.00,VWS V13.01,2013-06-20 10:33:00,
2013-06-20 12:35:00,73.6,67.8,29.86,ENE,78,0.0,3.0,82,0.00,,,0.00,VWS V13.01,2013-06-20 10:35:00,
2013-06-20 12:36:00,73.6,67.8,29.86,ENE,78,1.0,2.0,82,0.00,,,0.00,VWS V13.01,2013-06-20 10:36:00,
2013-06-20 12:39:00,73.8,68.0,29.86,ENE,78,3.0,4.0,82,0.00,,,0.00,VWS V13.01,2013-06-20 10:39:00,
2013-06-20 12:40:00,73.8,68.0,29.86,ENE,78,0.0,4.0,82,0.00,,,0.00,VWS V13.01,2013-06-20 10:40:00,
2013-06-20 12:41:00,73.9,67.7,29.86,ENE,78,0.0,0.0,81,0.00,,,0.00,VWS V13.01,2013-06-20 10:41:00,
2013-06-20 12:44:00,74.0,67.8,29.86,ENE,78,1.0,2.0,81,0.00,,,0.00,VWS V13.01,2013-06-20 10:44:00,
2013-06-20 12:45:00,74.0,67.8,29.84,ENE,78,0.0,2.0,81,0.00,,,0.00,VWS V13.01,2013-06-20 10:45:00,
2013-06-20 12:46:00,74.1,67.9,29.84,ENE,78,0.0,1.0,81,0.00,,,0.00,VWS V13.01,2013-06-20 10:46:00,
2013-06-20 12:49:00,74.2,68.0,29.84,ENE,78,1.0,1.0,81,0.00,,,0.00,VWS V13.01,2013-06-20 10:49:00,
2013-06-20 12:50:00,74.2,68.0,29.84,ENE,78,0.0,2.0,81,0.00,,,0.00,VWS V13.01,2013-06-20 10:50:00,
2013-06-20 12:51:00,74.3,68.1,29.84,ENE,78,3.0,4.0,81,0.00,,,0.00,VWS V13.01,2013-06-20 10:51:00,
2013-06-20 12:54:00,74.3,67.7,29.84,ENE,78,1.0,4.0,80,0.00,,,0.00,VWS V13.01,2013-06-20 10:54:00,
2013-06-20 12:55:00,74.4,67.8,29.84,ENE,78,1.0,4.0,80,0.00,,,0.00,VWS V13.01,2013-06-20 10:55:00,
2013-06-20 12:56:00,74.4,67.8,29.84,ENE,78,0.0,2.0,80,0.00,,,0.00,VWS V13.01,2013-06-20 10:56:00,
2013-06-20 12:57:00,74.4,67.8,29.84,ENE,78,2.0,2.0,80,0.00,,,0.00,VWS V13.01,2013-06-20 10:57:00,
2013-06-20 12:59:00,74.5,67.9,29.84,ENE,78,2.0,3.0,80,0.00,,,0.00,VWS V13.01,2013-06-20 10:59:00,
2013-06-20 13:00:00,74.4,67.8,29.83,ENE,78,2.0,3.0,80,0.00,,,0.00,VWS V13.01,2013-06-20 11:00:00,
2013-06-20 13:01:00,74.4,67.8,29.83,ENE,78,4.0,4.0,80,0.00,,,0.00,VWS V13.01,2013-06-20 11:01:00,
2013-06-20 13:02:00,74.4,67.8,29.83,ENE,78,4.0,4.0,80,0.00,,,0.00,VWS V13.01,2013-06-20 11:02:00,
2013-06-20 13:04:00,74.4,67.8,29.83,ENE,78,0.0,6.0,80,0.00,,,0.00,VWS V13.01,2013-06-20 11:04:00,
2013-06-20 13:05:00,74.4,67.8,29.83,ENE,78,4.0,6.0,80,0.00,,,0.00,VWS V13.01,2013-06-20 11:05:00,
2013-06-20 13:06:00,74.3,67.7,29.83,ENE,78,0.0,3.0,80,0.00,,,0.00,VWS V13.01,2013-06-20 11:06:00,
2013-06-20 13:07:00,74.3,67.7,29.83,ENE,78,1.0,3.0,80,0.00,,,0.00,VWS V13.01,2013-06-20 11:07:00,
2013-06-20 13:09:00,74.3,67.7,29.83,ENE,78,1.0,4.0,80,0.00,,,0.00,VWS V13.01,2013-06-20 11:09:00,
2013-06-20 13:10:00,74.3,67.7,29.83,ENE,78,4.0,6.0,80,0.00,,,0.00,VWS V13.01,2013-06-20 11:10:00,
2013-06-20 13:11:00,74.3,67.7,29.83,East,87,6.0,6.0,80,0.00,,,0.00,VWS V13.01,2013-06-20 11:11:00,
2013-06-20 13:12:00,74.3,67.7,29.83,East,89,5.0,6.0,80,0.00,,,0.00,VWS V13.01,2013-06-20 11:12:00,
2013-06-20 13:14:00,74.2,67.6,29.83,ESE,117,3.0,7.0,80,0.00,,,0.00,VWS V13.01,2013-06-20 11:14:00,
2013-06-20 13:15:00,74.2,67.6,29.82,ESE,117,5.0,7.0,80,0.00,,,0.00,VWS V13.01,2013-06-20 11:15:00,
2013-06-20 13:16:00,74.2,67.6,29.82,SE,125,4.0,4.0,80,0.00,,,0.00,VWS V13.01,2013-06-20 11:16:00,
2013-06-20 13:17:00,74.2,68.0,29.82,SE,126,5.0,6.0,81,0.00,,,0.00,VWS V13.01,2013-06-20 11:17:00,
2013-06-20 13:19:00,74.1,67.9,29.82,SE,131,7.0,7.0,81,0.00,,,0.00,VWS V13.01,2013-06-20 11:19:00,
2013-06-20 13:20:00,74.1,67.9,29.82,SE,135,4.0,7.0,81,0.00,,,0.00,VWS V13.01,2013-06-20 11:20:00,
2013-06-20 13:21:00,74.0,67.8,29.82,SE,140,2.0,6.0,81,0.00,,,0.00,VWS V13.01,2013-06-20 11:21:00,
2013-06-20 13:22:00,74.0,67.8,29.82,SE,140,4.0,6.0,81,0.00,,,0.00,VWS V13.01,2013-06-20 11:22:00,
2013-06-20 13:24:00,74.0,67.8,29.82,SSE,162,3.0,9.0,81,0.00,,,0.00,VWS V13.01,2013-06-20 11:24:00,
2013-06-20 13:26:00,73.9,67.7,29.82,SSE,161,3.0,9.0,81,0.00,,,0.00,VWS V13.01,2013-06-20 11:26:00,
2013-06-20 13:27:00,73.9,67.7,29.82,SSE,162,1.0,3.0,81,0.00,,,0.00,VWS V13.01,2013-06-20 11:27:00,
2013-06-20 13:29:00,73.9,68.1,29.82,SSE,162,3.0,4.0,82,0.00,,,0.00,VWS V13.01,2013-06-20 11:29:00,
2013-06-20 13:31:00,73.9,68.1,29.82,SSE,161,2.0,4.0,82,0.00,,,0.00,VWS V13.01,2013-06-20 11:31:00,
2013-06-20 13:32:00,73.9,68.1,29.82,SSE,162,3.0,5.0,82,0.00,,,0.00,VWS V13.01,2013-06-20 11:32:00,
2013-06-20 13:35:00,73.9,68.1,29.82,SSE,162,0.0,5.0,82,0.00,,,0.00,VWS V13.01,2013-06-20 11:35:00,
2013-06-20 13:36:00,74.0,68.2,29.82,SSE,162,1.0,5.0,82,0.00,,,0.00,VWS V13.01,2013-06-20 11:36:00,
2013-06-20 13:37:00,74.0,68.2,29.82,SSE,162,1.0,5.0,82,0.00,,,0.00,VWS V13.01,2013-06-20 11:37:00,
2013-06-20 13:38:00,74.0,68.2,29.82,SSE,161,1.0,5.0,82,0.00,,,0.00,VWS V13.01,2013-06-20 11:38:00,
2013-06-20 13:40:00,74.1,68.3,29.82,SSE,162,0.0,5.0,82,0.00,,,0.00,VWS V13.01,2013-06-20 11:40:00,
2013-06-20 13:41:00,74.1,68.3,29.82,SSE,162,0.0,0.0,82,0.00,,,0.00,VWS V13.01,2013-06-20 11:41:00,
2013-06-20 13:42:00,74.1,68.3,29.82,SSE,161,0.0,0.0,82,0.00,,,0.00,VWS V13.01,2013-06-20 11:42:00,
2013-06-20 13:43:00,74.2,68.4,29.82,SSE,162,2.0,2.0,82,0.00,,,0.00,VWS V13.01,2013-06-20 11:43:00,
2013-06-20 13:45:00,74.3,68.4,29.82,SSE,162,1.0,5.0,82,0.00,,,0.00,VWS V13.01,2013-06-20 11:45:00,
2013-06-20 13:46:00,74.3,68.4,29.82,SSE,162,3.0,4.0,82,0.00,,,0.00,VWS V13.01,2013-06-20 11:46:00,
2013-06-20 13:47:00,74.3,68.1,29.82,SSE,162,2.0,5.0,81,0.00,,,0.00,VWS V13.01,2013-06-20 11:47:00,
2013-06-20 13:48:00,74.4,68.2,29.82,SSE,162,0.0,5.0,81,0.00,,,0.00,VWS V13.01,2013-06-20 11:48:00,
2013-06-20 13:50:00,74.4,68.2,29.82,SSE,161,4.0,6.0,81,0.00,,,0.00,VWS V13.01,2013-06-20 11:50:00,
2013-06-20 13:51:00,74.4,68.2,29.82,SSE,162,0.0,3.0,81,0.00,,,0.00,VWS V13.01,2013-06-20 11:51:00,
2013-06-20 13:52:00,74.4,68.2,29.82,SSE,162,0.0,3.0,81,0.00,,,0.00,VWS V13.01,2013-06-20 11:52:00,
2013-06-20 13:53:00,74.5,68.3,29.82,SSE,161,0.0,4.0,81,0.00,,,0.00,VWS V13.01,2013-06-20 11:53:00,
2013-06-20 13:55:00,74.6,68.4,29.82,SSE,162,3.0,6.0,81,0.00,,,0.00,VWS V13.01,2013-06-20 11:55:00,
2013-06-20 13:57:00,74.7,68.5,29.82,SSE,162,0.0,3.0,81,0.00,,,0.00,VWS V13.01,2013-06-20 11:57:00,
2013-06-20 13:58:00,74.7,68.5,29.82,SSE,161,2.0,4.0,81,0.00,,,0.00,VWS V13.01,2013-06-20 11:58:00,
2013-06-20 14:00:00,74.8,68.6,29.82,SSE,161,1.0,5.0,81,0.00,,,0.00,VWS V13.01,2013-06-20 12:00:00,
2013-06-20 14:02:00,74.8,68.6,29.82,SSE,162,2.0,2.0,81,0.00,,,0.00,VWS V13.01,2013-06-20 12:02:00,
2013-06-20 14:04:00,74.9,68.3,29.82,SSE,161,0.0,4.0,80,0.00,,,0.00,VWS V13.01,2013-06-20 12:04:00,
2013-06-20 14:05:00,74.9,68.3,29.82,SSE,162,0.0,4.0,80,0.00,,,0.00,VWS V13.01,2013-06-20 12:05:00,
2013-06-20 14:07:00,75.0,68.4,29.82,SSE,161,0.0,2.0,80,0.00,,,0.00,VWS V13.01,2013-06-20 12:07:00,
2013-06-20 14:09:00,75.0,68.4,29.82,SSE,161,4.0,5.0,80,0.00,,,0.00,VWS V13.01,2013-06-20 12:09:00,
2013-06-20 14:10:00,75.0,68.4,29.82,SSE,162,3.0,5.0,80,0.00,,,0.00,VWS V13.01,2013-06-20 12:10:00,
2013-06-20 14:12:00,75.0,68.4,29.82,SSE,162,3.0,3.0,80,0.00,,,0.00,VWS V13.01,2013-06-20 12:12:00,
2013-06-20 14:13:00,75.0,68.4,29.82,SSE,162,0.0,3.0,80,0.00,,,0.00,VWS V13.01,2013-06-20 12:13:00,
2013-06-20 14:14:00,75.1,68.5,29.82,SSE,162,2.0,3.0,80,0.00,,,0.00,VWS V13.01,2013-06-20 12:14:00,
2013-06-20 14:15:00,75.1,68.2,29.82,SSE,161,2.0,6.0,79,0.00,,,0.00,VWS V13.01,2013-06-20 12:15:00,
2013-06-20 14:17:00,75.1,68.2,29.82,SSE,161,3.0,3.0,79,0.00,,,0.00,VWS V13.01,2013-06-20 12:17:00,
2013-06-20 14:18:00,75.1,68.2,29.82,SSE,162,0.0,3.0,79,0.00,,,0.00,VWS V13.01,2013-06-20 12:18:00,
2013-06-20 14:19:00,75.1,68.2,29.82,SSE,162,0.0,3.0,79,0.00,,,0.00,VWS V13.01,2013-06-20 12:19:00,
2013-06-20 14:20:00,75.1,68.2,29.82,SSE,161,4.0,5.0,79,0.00,,,0.00,VWS V13.01,2013-06-20 12:20:00,
2013-06-20 14:22:00,75.2,68.2,29.82,SSE,161,3.0,3.0,79,0.00,,,0.00,VWS V13.01,2013-06-20 12:22:00,
2013-06-20 14:23:00,75.2,68.2,29.82,SSE,162,5.0,5.0,79,0.00,,,0.00,VWS V13.01,2013-06-20 12:23:00,
2013-06-20 14:24:00,75.2,68.2,29.82,SSE,161,0.0,5.0,79,0.00,,,0.00,VWS V13.01,2013-06-20 12:24:00,
2013-06-20 14:25:00,75.2,68.2,29.82,SSE,162,4.0,5.0,79,0.00,,,0.00,VWS V13.01,2013-06-20 12:25:00,
2013-06-20 14:27:00,75.3,68.3,29.82,SSE,162,2.0,4.0,79,0.00,,,0.00,VWS V13.01,2013-06-20 12:27:00,
2013-06-20 14:28:00,75.3,68.3,29.82,SSE,162,0.0,4.0,79,0.00,,,0.00,VWS V13.01,2013-06-20 12:28:00,
2013-06-20 14:29:00,75.3,68.7,29.82,SSE,161,0.0,4.0,80,0.00,,,0.00,VWS V13.01,2013-06-20 12:29:00,
2013-06-20 14:30:00,75.3,68.7,29.83,SSE,162,3.0,4.0,80,0.00,,,0.00,VWS V13.01,2013-06-20 12:30:00,
2013-06-20 14:32:00,75.4,68.8,29.83,SSE,162,0.0,1.0,80,0.00,,,0.00,VWS V13.01,2013-06-20 12:32:00,
2013-06-20 14:33:00,75.3,68.7,29.83,SSE,162,0.0,1.0,80,0.00,,,0.00,VWS V13.01,2013-06-20 12:33:00,
2013-06-20 14:34:00,75.4,68.8,29.83,SSE,162,0.0,1.0,80,0.00,,,0.00,VWS V13.01,2013-06-20 12:34:00,
2013-06-20 14:35:00,75.4,69.2,29.83,SSE,162,1.0,2.0,81,0.00,,,0.00,VWS V13.01,2013-06-20 12:35:00,
2013-06-20 14:37:00,75.4,69.2,29.83,SSE,162,0.0,1.0,81,0.00,,,0.00,VWS V13.01,2013-06-20 12:37:00,
2013-06-20 14:38:00,75.4,69.2,29.83,SSE,161,0.0,1.0,81,0.00,,,0.00,VWS V13.01,2013-06-20 12:38:00,
2013-06-20 14:39:00,75.5,69.6,29.83,SSE,161,0.0,1.0,82,0.00,,,0.00,VWS V13.01,2013-06-20 12:39:00,
2013-06-20 14:41:00,75.5,69.6,29.83,SSE,162,2.0,3.0,82,0.00,,,0.00,VWS V13.01,2013-06-20 12:41:00,
2013-06-20 14:42:00,75.5,70.0,29.83,SSE,162,0.0,0.0,83,0.00,,,0.00,VWS V13.01,2013-06-20 12:42:00,
2013-06-20 14:43:00,75.6,70.1,29.83,SSE,162,0.0,1.0,83,0.00,,,0.00,VWS V13.01,2013-06-20 12:43:00,
2013-06-20 14:44:00,75.6,70.1,29.83,SSE,161,1.0,2.0,83,0.00,,,0.00,VWS V13.01,2013-06-20 12:44:00,
2013-06-20 14:46:00,75.6,70.1,29.83,SSE,162,0.0,2.0,83,0.00,,,0.00,VWS V13.01,2013-06-20 12:46:00,
2013-06-20 14:47:00,75.5,70.0,29.83,SSE,162,0.0,3.0,83,0.00,,,0.00,VWS V13.01,2013-06-20 12:47:00,
2013-06-20 14:48:00,75.5,70.0,29.83,SSE,161,0.0,3.0,83,0.00,,,0.00,VWS V13.01,2013-06-20 12:48:00,
2013-06-20 14:49:00,75.5,70.3,29.83,SSE,162,0.0,3.0,84,0.00,,,0.00,VWS V13.01,2013-06-20 12:49:00,
2013-06-20 14:51:00,75.4,70.2,29.83,SSE,161,0.0,3.0,84,0.00,,,0.00,VWS V13.01,2013-06-20 12:51:00,
2013-06-20 14:52:00,75.3,70.1,29.83,SSE,162,4.0,6.0,84,0.00,,,0.00,VWS V13.01,2013-06-20 12:52:00,
2013-06-20 14:53:00,75.3,70.1,29.83,SSE,162,0.0,6.0,84,0.00,,,0.00,VWS V13.01,2013-06-20 12:53:00,
2013-06-20 14:54:00,75.1,69.9,29.83,SSE,162,2.0,6.0,84,0.01,,,0.01,VWS V13.01,2013-06-20 12:54:00,
2013-06-20 14:56:00,75.0,69.8,29.83,SSE,162,1.0,4.0,84,0.01,,,0.01,VWS V13.01,2013-06-20 12:56:00,
2013-06-20 14:57:00,74.9,70.1,29.83,SSE,162,2.0,4.0,85,0.01,,,0.01,VWS V13.01,2013-06-20 12:57:00,
2013-06-20 14:58:00,74.8,70.0,29.83,SSE,162,4.0,4.0,85,0.01,,,0.01,VWS V13.01,2013-06-20 12:58:00,
2013-06-20 14:59:00,74.8,70.0,29.83,SSE,162,0.0,5.0,85,0.01,,,0.01,VWS V13.01,2013-06-20 12:59:00,
2013-06-20 15:01:00,74.7,69.9,29.83,SSE,161,0.0,0.0,85,0.02,,,0.02,VWS V13.01,2013-06-20 13:01:00,
2013-06-20 15:03:00,74.6,70.1,29.83,SSE,162,0.0,4.0,86,0.02,,,0.02,VWS V13.01,2013-06-20 13:03:00,
2013-06-20 15:04:00,74.6,70.1,29.83,SSE,162,0.0,4.0,86,0.02,,,0.02,VWS V13.01,2013-06-20 13:04:00,
2013-06-20 15:06:00,74.4,69.9,29.83,SSE,161,1.0,3.0,86,0.02,,,0.02,VWS V13.01,2013-06-20 13:06:00,
2013-06-20 15:08:00,74.4,69.9,29.83,SSE,161,0.0,3.0,86,0.02,,,0.02,VWS V13.01,2013-06-20 13:08:00,
2013-06-20 15:09:00,74.3,70.2,29.83,SSE,162,0.0,3.0,87,0.02,,,0.02,VWS V13.01,2013-06-20 13:09:00,
2013-06-20 15:11:00,74.2,70.1,29.83,SSE,162,0.0,4.0,87,0.02,,,0.02,VWS V13.01,2013-06-20 13:11:00,
2013-06-20 15:13:00,74.2,70.4,29.83,SSE,162,0.0,4.0,88,0.02,,,0.02,VWS V13.01,2013-06-20 13:13:00,
2013-06-20 15:14:00,74.2,70.4,29.83,SSE,162,0.0,4.0,88,0.02,,,0.02,VWS V13.01,2013-06-20 13:14:00,
2013-06-20 15:17:00,74.1,70.3,29.81,SSE,161,0.0,1.0,88,0.02,,,0.02,VWS V13.01,2013-06-20 13:17:00,
2013-06-20 15:18:00,74.1,70.3,29.81,SSE,162,1.0,1.0,88,0.02,,,0.02,VWS V13.01,2013-06-20 13:18:00,
2013-06-20 15:19:00,74.1,70.3,29.81,SSE,161,3.0,3.0,88,0.02,,,0.02,VWS V13.01,2013-06-20 13:19:00,
2013-06-20 15:22:00,73.9,70.5,29.81,SSE,162,1.0,3.0,89,0.02,,,0.02,VWS V13.01,2013-06-20 13:22:00,
2013-06-20 15:23:00,73.8,70.4,29.81,SSE,162,0.0,4.0,89,0.02,,,0.02,VWS V13.01,2013-06-20 13:23:00,
2013-06-20 15:24:00,73.8,70.4,29.81,SSE,162,0.0,4.0,89,0.02,,,0.02,VWS V13.01,2013-06-20 13:24:00,
2013-06-20 15:25:00,73.8,70.4,29.81,SSE,162,0.0,4.0,89,0.02,,,0.02,VWS V13.01,2013-06-20 13:25:00,
2013-06-20 15:27:00,73.7,70.3,29.81,SSE,162,0.0,4.0,89,0.03,,,0.03,VWS V13.01,2013-06-20 13:27:00,
2013-06-20 15:28:00,73.6,70.2,29.81,SSE,162,1.0,4.0,89,0.03,,,0.03,VWS V13.01,2013-06-20 13:28:00,
2013-06-20 15:29:00,73.6,70.2,29.81,SSE,162,0.0,4.0,89,0.03,,,0.03,VWS V13.01,2013-06-20 13:29:00,
2013-06-20 15:30:00,73.5,70.1,29.81,SSE,162,0.0,4.0,89,0.03,,,0.03,VWS V13.01,2013-06-20 13:30:00,
2013-06-20 15:32:00,73.5,70.4,29.80,SSE,162,0.0,1.0,90,0.03,,,0.03,VWS V13.01,2013-06-20 13:32:00,
2013-06-20 15:33:00,73.4,70.3,29.80,SSE,161,0.0,2.0,90,0.03,,,0.03,VWS V13.01,2013-06-20 13:33:00,
2013-06-20 15:34:00,73.4,70.3,29.80,SSE,161,0.0,2.0,90,0.03,,,0.03,VWS V13.01,2013-06-20 13:34:00,
2013-06-20 15:35:00,73.4,70.3,29.80,SSE,161,0.0,2.0,90,0.03,,,0.03,VWS V13.01,2013-06-20 13:35:00,
2013-06-20 15:37:00,73.3,70.2,29.80,SSE,162,0.0,0.0,90,0.03,,,0.03,VWS V13.01,2013-06-20 13:37:00,
2013-06-20 15:39:00,73.2,70.1,29.80,SSE,162,0.0,3.0,90,0.03,,,0.03,VWS V13.01,2013-06-20 13:39:00,
2013-06-20 15:40:00,73.2,70.1,29.80,SSE,161,3.0,3.0,90,0.03,,,0.03,VWS V13.01,2013-06-20 13:40:00,
2013-06-20 15:42:00,73.0,69.9,29.80,SSE,162,0.0,3.0,90,0.03,,,0.03,VWS V13.01,2013-06-20 13:42:00,
2013-06-20 15:44:00,72.9,69.8,29.80,SSE,162,0.0,3.0,90,0.03,,,0.03,VWS V13.01,2013-06-20 13:44:00,
2013-06-20 15:45:00,72.8,69.7,29.80,SSE,162,0.0,3.0,90,0.03,,,0.03,VWS V13.01,2013-06-20 13:45:00,
2013-06-20 15:47:00,72.7,69.9,29.78,SSE,161,0.0,1.0,91,0.03,,,0.03,VWS V13.01,2013-06-20 13:47:00,
2013-06-20 15:49:00,72.6,69.8,29.78,SSE,162,0.0,3.0,91,0.03,,,0.03,VWS V13.01,2013-06-20 13:49:00,
2013-06-20 15:50:00,72.6,69.8,29.78,SSE,162,2.0,3.0,91,0.03,,,0.03,VWS V13.01,2013-06-20 13:50:00,
2013-06-20 15:52:00,72.5,69.7,29.78,SSE,162,1.0,3.0,91,0.03,,,0.03,VWS V13.01,2013-06-20 13:52:00,
2013-06-20 15:54:00,72.4,69.6,29.78,SSE,162,1.0,5.0,91,0.03,,,0.03,VWS V13.01,2013-06-20 13:54:00,
2013-06-20 15:55:00,72.4,69.6,29.78,SSE,162,2.0,5.0,91,0.03,,,0.03,VWS V13.01,2013-06-20 13:55:00,
2013-06-20 15:58:00,72.2,69.4,29.78,SSE,162,1.0,4.0,91,0.02,,,0.03,VWS V13.01,2013-06-20 13:58:00,
2013-06-20 15:59:00,72.2,69.8,29.78,SSE,161,3.0,5.0,92,0.02,,,0.03,VWS V13.01,2013-06-20 13:59:00,
2013-06-20 16:00:00,72.1,69.7,29.78,SSE,162,5.0,5.0,92,0.02,,,0.03,VWS V13.01,2013-06-20 14:00:00,
2013-06-20 16:03:00,71.9,69.4,29.78,SSE,162,4.0,4.0,92,0.02,,,0.03,VWS V13.01,2013-06-20 14:03:00,
2013-06-20 16:04:00,71.8,69.3,29.78,SSE,159,0.0,5.0,92,0.02,,,0.03,VWS V13.01,2013-06-20 14:04:00,
2013-06-20 16:05:00,71.8,69.3,29.78,SSE,157,5.0,5.0,92,0.02,,,0.03,VWS V13.01,2013-06-20 14:05:00,
2013-06-20 16:08:00,71.5,69.1,29.78,SSE,152,4.0,4.0,92,0.02,,,0.03,VWS V13.01,2013-06-20 14:08:00,
2013-06-20 16:09:00,71.4,69.0,29.78,SE,144,5.0,5.0,92,0.02,,,0.03,VWS V13.01,2013-06-20 14:09:00,
2013-06-20 16:10:00,71.4,69.0,29.78,SE,140,5.0,5.0,92,0.02,,,0.03,VWS V13.01,2013-06-20 14:10:00,
2013-06-20 16:13:00,71.2,68.8,29.78,ESE,123,5.0,5.0,92,0.01,,,0.03,VWS V13.01,2013-06-20 14:13:00,
2013-06-20 16:14:00,71.1,69.0,29.78,ESE,123,4.0,5.0,93,0.01,,,0.03,VWS V13.01,2013-06-20 14:14:00,
2013-06-20 16:15:00,71.1,69.0,29.78,ESE,123,5.0,5.0,93,0.01,,,0.03,VWS V13.01,2013-06-20 14:15:00,
2013-06-20 16:18:00,70.8,68.7,29.78,ESE,118,3.0,6.0,93,0.01,,,0.03,VWS V13.01,2013-06-20 14:18:00,
2013-06-20 16:19:00,70.7,68.6,29.78,ESE,109,6.0,9.0,93,0.01,,,0.03,VWS V13.01,2013-06-20 14:19:00,
2013-06-20 16:20:00,70.6,68.5,29.78,ESE,109,5.0,9.0,93,0.01,,,0.03,VWS V13.01,2013-06-20 14:20:00,
2013-06-20 16:23:00,70.4,68.3,29.78,East,99,5.0,6.0,93,0.01,,,0.03,VWS V13.01,2013-06-20 14:23:00,
2013-06-20 16:24:00,70.3,68.2,29.78,East,98,4.0,6.0,93,0.01,,,0.03,VWS V13.01,2013-06-20 14:24:00,
2013-06-20 16:25:00,70.3,68.2,29.78,East,96,6.0,6.0,93,0.01,,,0.03,VWS V13.01,2013-06-20 14:25:00,
2013-06-20 16:28:00,70.0,68.2,29.78,East,83,5.0,7.0,94,0.00,,,0.03,VWS V13.01,2013-06-20 14:28:00,
2013-06-20 16:29:00,69.9,68.1,29.78,East,80,4.0,9.0,94,0.00,,,0.03,VWS V13.01,2013-06-20 14:29:00,
2013-06-20 16:30:00,69.9,67.8,29.78,East,80,6.0,9.0,93,0.00,,,0.03,VWS V13.01,2013-06-20 14:30:00,
2013-06-20 16:33:00,69.7,67.9,29.78,ENE,76,6.0,9.0,94,0.00,,,0.03,VWS V13.01,2013-06-20 14:33:00,
2013-06-20 16:34:00,69.7,67.9,29.78,ENE,76,9.0,9.0,94,0.00,,,0.03,VWS V13.01,2013-06-20 14:34:00,
2013-06-20 16:35:00,69.7,67.9,29.78,ENE,75,3.0,12.0,94,0.00,,,0.03,VWS V13.01,2013-06-20 14:35:00,
2013-06-20 16:36:00,69.6,67.8,29.78,ENE,75,3.0,12.0,94,0.00,,,0.03,VWS V13.01,2013-06-20 14:36:00,
2013-06-20 16:38:00,69.5,67.7,29.78,ENE,75,5.0,6.0,94,0.00,,,0.03,VWS V13.01,2013-06-20 14:38:00,
2013-06-20 16:39:00,69.5,67.7,29.78,ENE,75,4.0,6.0,94,0.00,,,0.03,VWS V13.01,2013-06-20 14:39:00,
2013-06-20 16:40:00,69.5,67.7,29.78,ENE,75,5.0,6.0,94,0.00,,,0.03,VWS V13.01,2013-06-20 14:40:00,
2013-06-20 16:41:00,69.4,67.6,29.78,ENE,75,7.0,9.0,94,0.00,,,0.03,VWS V13.01,2013-06-20 14:41:00,
2013-06-20 16:44:00,69.4,67.6,29.78,ENE,74,4.0,9.0,94,0.00,,,0.03,VWS V13.01,2013-06-20 14:44:00,
2013-06-20 16:45:00,69.3,67.5,29.78,ENE,74,7.0,9.0,94,0.00,,,0.03,VWS V13.01,2013-06-20 14:45:00,
2013-06-20 16:46:00,69.3,67.5,29.77,ENE,74,5.0,9.0,94,0.00,,,0.03,VWS V13.01,2013-06-20 14:46:00,
2013-06-20 16:49:00,69.2,67.7,29.77,ENE,72,8.0,8.0,95,0.00,,,0.03,VWS V13.01,2013-06-20 14:49:00,
2013-06-20 16:50:00,69.2,67.7,29.77,ENE,73,5.0,9.0,95,0.00,,,0.03,VWS V13.01,2013-06-20 14:50:00,
2013-06-20 16:51:00,69.1,67.6,29.77,ENE,73,4.0,9.0,95,0.00,,,0.03,VWS V13.01,2013-06-20 14:51:00,
2013-06-20 16:54:00,69.1,67.6,29.77,ENE,72,9.0,9.0,95,0.00,,,0.03,VWS V13.01,2013-06-20 14:54:00,
2013-06-20 16:55:00,69.1,67.6,29.77,ENE,71,6.0,9.0,95,0.00,,,0.03,VWS V13.01,2013-06-20 14:55:00,
2013-06-20 16:56:00,69.1,67.6,29.77,ENE,71,4.0,9.0,95,0.00,,,0.03,VWS V13.01,2013-06-20 14:56:00,
2013-06-20 16:59:00,69.1,67.6,29.77,ENE,69,7.0,11.0,95,0.00,,,0.03,VWS V13.01,2013-06-20 14:59:00,
2013-06-20 17:00:00,69.0,67.5,29.77,ENE,69,11.0,11.0,95,0.00,,,0.03,VWS V13.01,2013-06-20 15:00:00,
2013-06-20 17:01:00,69.0,67.5,29.75,ENE,67,8.0,10.0,95,0.00,,,0.03,VWS V13.01,2013-06-20 15:01:00,
2013-06-20 17:04:00,69.0,67.5,29.75,ENE,65,5.0,12.0,95,0.00,,,0.03,VWS V13.01,2013-06-20 15:04:00,
2013-06-20 17:05:00,69.0,67.5,29.75,ENE,65,6.0,12.0,95,0.00,,,0.03,VWS V13.01,2013-06-20 15:05:00,
2013-06-20 17:06:00,69.0,67.5,29.75,ENE,66,10.0,11.0,95,0.00,,,0.03,VWS V13.01,2013-06-20 15:06:00,
2013-06-20 17:09:00,69.0,67.8,29.75,ENE,65,5.0,11.0,96,0.00,,,0.03,VWS V13.01,2013-06-20 15:09:00,
2013-06-20 17:10:00,69.0,67.8,29.75,ENE,63,5.0,11.0,96,0.00,,,0.03,VWS V13.01,2013-06-20 15:10:00,
2013-06-20 17:11:00,69.0,67.8,29.75,ENE,63,3.0,5.0,96,0.00,,,0.03,VWS V13.01,2013-06-20 15:11:00,
2013-06-20 17:14:00,68.9,67.7,29.75,ENE,67,5.0,13.0,96,0.00,,,0.03,VWS V13.01,2013-06-20 15:14:00,
2013-06-20 17:15:00,68.9,67.7,29.75,ENE,67,3.0,13.0,96,0.00,,,0.03,VWS V13.01,2013-06-20 15:15:00,
2013-06-20 17:16:00,68.9,67.7,29.76,ENE,67,0.0,1.0,96,0.00,,,0.03,VWS V13.01,2013-06-20 15:16:00,
2013-06-20 17:20:00,69.0,67.8,29.76,ESE,105,6.0,8.0,96,0.00,,,0.03,VWS V13.01,2013-06-20 15:20:00,
2013-06-20 17:21:00,69.0,67.8,29.76,ESE,117,4.0,4.0,96,0.00,,,0.03,VWS V13.01,2013-06-20 15:21:00,
2013-06-20 17:25:00,69.0,67.8,29.76,ESE,117,2.0,4.0,96,0.00,,,0.03,VWS V13.01,2013-06-20 15:25:00,
2013-06-20 17:26:00,69.1,67.9,29.76,ESE,117,3.0,4.0,96,0.00,,,0.03,VWS V13.01,2013-06-20 15:26:00,
2013-06-20 17:30:00,69.2,68.0,29.76,ESE,117,0.0,4.0,96,0.00,,,0.03,VWS V13.01,2013-06-20 15:30:00,
2013-06-20 17:31:00,69.3,68.1,29.77,ESE,117,3.0,6.0,96,0.00,,,0.03,VWS V13.01,2013-06-20 15:31:00,
2013-06-20 17:35:00,69.4,68.2,29.77,ESE,115,5.0,6.0,96,0.00,,,0.03,VWS V13.01,2013-06-20 15:35:00,
2013-06-20 17:36:00,69.4,68.2,29.77,ESE,115,0.0,2.0,96,0.00,,,0.03,VWS V13.01,2013-06-20 15:36:00,
2013-06-20 17:40:00,69.5,68.3,29.77,ESE,115,0.0,5.0,96,0.00,,,0.03,VWS V13.01,2013-06-20 15:40:00,
2013-06-20 17:41:00,69.5,68.3,29.77,ESE,115,5.0,5.0,96,0.00,,,0.03,VWS V13.01,2013-06-20 15:41:00,
2013-06-20 17:42:00,69.6,68.4,29.77,ESE,114,3.0,4.0,96,0.00,,,0.03,VWS V13.01,2013-06-20 15:42:00,
2013-06-20 17:45:00,69.7,68.5,29.77,ESE,115,0.0,4.0,96,0.00,,,0.03,VWS V13.01,2013-06-20 15:45:00,
2013-06-20 17:46:00,69.7,68.5,29.77,ESE,115,0.0,4.0,96,0.00,,,0.03,VWS V13.01,2013-06-20 15:46:00,
2013-06-20 17:47:00,69.8,68.6,29.77,ESE,114,2.0,6.0,96,0.00,,,0.03,VWS V13.01,2013-06-20 15:47:00,
2013-06-20 17:50:00,69.9,68.7,29.77,ESE,102,3.0,9.0,96,0.00,,,0.03,VWS V13.01,2013-06-20 15:50:00,
2013-06-20 17:51:00,70.0,68.8,29.77,ESE,103,2.0,9.0,96,0.00,,,0.03,VWS V13.01,2013-06-20 15:51:00,
2013-06-20 17:52:00,70.0,68.8,29.77,East,101,3.0,6.0,96,0.00,,,0.03,VWS V13.01,2013-06-20 15:52:00,
2013-06-20 17:55:00,70.1,68.9,29.77,East,101,4.0,6.0,96,0.00,,,0.03,VWS V13.01,2013-06-20 15:55:00,
2013-06-20 17:56:00,70.2,69.0,29.77,East,101,4.0,6.0,96,0.00,,,0.03,VWS V13.01,2013-06-20 15:56:00,
2013-06-20 17:57:00,70.2,68.7,29.77,East,101,1.0,4.0,95,0.00,,,0.03,VWS V13.01,2013-06-20 15:57:00,
2013-06-20 18:00:00,70.2,68.7,29.77,East,101,0.0,5.0,95,0.00,,,0.03,VWS V13.01,2013-06-20 16:00:00,
2013-06-20 18:01:00,70.3,68.8,29.77,East,101,0.0,5.0,95,0.00,,,0.03,VWS V13.01,2013-06-20 16:01:00,
2013-06-20 18:02:00,70.3,68.8,29.77,East,101,0.0,2.0,95,0.00,,,0.03,VWS V13.01,2013-06-20 16:02:00,
2013-06-20 18:05:00,70.5,69.0,29.77,East,101,1.0,3.0,95,0.00,,,0.03,VWS V13.01,2013-06-20 16:05:00,
2013-06-20 18:06:00,70.5,69.0,29.77,East,101,2.0,3.0,95,0.00,,,0.03,VWS V13.01,2013-06-20 16:06:00,
2013-06-20 18:07:00,70.6,69.1,29.77,East,101,0.0,3.0,95,0.00,,,0.03,VWS V13.01,2013-06-20 16:07:00,
2013-06-20 18:11:00,70.7,69.2,29.77,East,101,0.0,6.0,95,0.00,,,0.03,VWS V13.01,2013-06-20 16:11:00,
2013-06-20 18:12:00,70.8,69.3,29.77,East,101,0.0,1.0,95,0.00,,,0.03,VWS V13.01,2013-06-20 16:12:00,
2013-06-20 18:16:00,70.9,69.4,29.77,East,101,0.0,2.0,95,0.00,,,0.03,VWS V13.01,2013-06-20 16:16:00,
2013-06-20 18:17:00,71.0,69.5,29.77,East,101,0.0,3.0,95,0.00,,,0.03,VWS V13.01,2013-06-20 16:17:00,
2013-06-20 18:21:00,71.1,69.6,29.77,East,101,0.0,3.0,95,0.00,,,0.03,VWS V13.01,2013-06-20 16:21:00,
2013-06-20 18:22:00,71.1,69.3,29.77,East,101,0.0,1.0,94,0.00,,,0.03,VWS V13.01,2013-06-20 16:22:00,
2013-06-20 18:26:00,71.3,69.5,29.77,East,101,0.0,1.0,94,0.00,,,0.03,VWS V13.01,2013-06-20 16:26:00,
2013-06-20 18:27:00,71.3,69.5,29.77,East,101,0.0,0.0,94,0.00,,,0.03,VWS V13.01,2013-06-20 16:27:00,
2013-06-20 18:28:00,71.3,69.5,29.77,East,101,0.0,0.0,94,0.00,,,0.03,VWS V13.01,2013-06-20 16:28:00,
2013-06-20 18:31:00,71.5,69.7,29.76,East,101,2.0,3.0,94,0.00,,,0.03,VWS V13.01,2013-06-20 16:31:00,
2013-06-20 18:32:00,71.5,69.7,29.76,East,101,0.0,3.0,94,0.00,,,0.03,VWS V13.01,2013-06-20 16:32:00,
2013-06-20 18:33:00,71.6,69.8,29.76,East,101,0.0,3.0,94,0.00,,,0.03,VWS V13.01,2013-06-20 16:33:00,
2013-06-20 18:36:00,71.7,69.9,29.76,East,101,0.0,0.0,94,0.00,,,0.03,VWS V13.01,2013-06-20 16:36:00,
2013-06-20 18:37:00,71.7,69.9,29.76,East,101,0.0,0.0,94,0.00,,,0.03,VWS V13.01,2013-06-20 16:37:00,
2013-06-20 18:38:00,71.7,69.9,29.76,East,101,2.0,2.0,94,0.00,,,0.03,VWS V13.01,2013-06-20 16:38:00,
2013-06-20 18:41:00,71.8,69.7,29.76,East,101,0.0,1.0,93,0.00,,,0.03,VWS V13.01,2013-06-20 16:41:00,
2013-06-20 18:42:00,71.8,69.7,29.76,East,101,0.0,1.0,93,0.00,,,0.03,VWS V13.01,2013-06-20 16:42:00,
2013-06-20 18:43:00,71.9,69.8,29.76,East,101,2.0,3.0,93,0.00,,,0.03,VWS V13.01,2013-06-20 16:43:00,
2013-06-20 18:46:00,72.0,69.9,29.77,East,101,0.0,0.0,93,0.00,,,0.03,VWS V13.01,2013-06-20 16:46:00,
2013-06-20 18:47:00,72.0,69.9,29.77,East,101,0.0,0.0,93,0.00,,,0.03,VWS V13.01,2013-06-20 16:47:00,
2013-06-20 18:48:00,72.0,69.9,29.77,East,101,0.0,1.0,93,0.00,,,0.03,VWS V13.01,2013-06-20 16:48:00,
2013-06-20 18:51:00,72.1,70.0,29.77,East,101,0.0,0.0,93,0.00,,,0.03,VWS V13.01,2013-06-20 16:51:00,
2013-06-20 18:52:00,72.1,70.0,29.77,East,101,0.0,0.0,93,0.00,,,0.03,VWS V13.01,2013-06-20 16:52:00,
2013-06-20 18:53:00,72.2,70.1,29.77,East,101,1.0,1.0,93,0.00,,,0.03,VWS V13.01,2013-06-20 16:53:00,
2013-06-20 18:56:00,72.3,70.2,29.77,East,101,0.0,0.0,93,0.00,,,0.03,VWS V13.01,2013-06-20 16:56:00,
2013-06-20 18:57:00,72.3,70.2,29.77,East,101,0.0,0.0,93,0.00,,,0.03,VWS V13.01,2013-06-20 16:57:00,
2013-06-20 18:58:00,72.3,70.2,29.77,East,101,0.0,0.0,93,0.00,,,0.03,VWS V13.01,2013-06-20 16:58:00,
2013-06-20 19:01:00,72.4,69.9,29.77,East,101,0.0,1.0,92,0.00,,,0.03,VWS V13.01,2013-06-20 17:01:00,
2013-06-20 19:02:00,72.4,69.9,29.77,East,101,0.0,2.0,92,0.00,,,0.03,VWS V13.01,2013-06-20 17:02:00,
2013-06-20 19:03:00,72.5,70.1,29.77,East,101,2.0,4.0,92,0.00,,,0.03,VWS V13.01,2013-06-20 17:03:00,
2013-06-20 19:06:00,72.6,70.2,29.77,East,101,0.0,2.0,92,0.00,,,0.03,VWS V13.01,2013-06-20 17:06:00,
2013-06-20 19:07:00,72.6,70.2,29.77,East,101,1.0,2.0,92,0.00,,,0.03,VWS V13.01,2013-06-20 17:07:00,
2013-06-20 19:09:00,72.6,70.2,29.77,East,101,0.0,2.0,92,0.00,,,0.03,VWS V13.01,2013-06-20 17:09:00,
2013-06-20 19:11:00,72.4,69.6,29.77,East,101,0.0,0.0,91,0.00,,,0.03,VWS V13.01,2013-06-20 17:11:00,
2013-06-20 19:12:00,72.4,69.6,29.77,East,101,0.0,1.0,91,0.00,,,0.03,VWS V13.01,2013-06-20 17:12:00,
2013-06-20 19:14:00,72.5,69.7,29.77,East,101,0.0,3.0,91,0.00,,,0.03,VWS V13.01,2013-06-20 17:14:00,
2013-06-20 19:16:00,72.5,70.1,29.75,East,101,0.0,1.0,92,0.00,,,0.03,VWS V13.01,2013-06-20 17:16:00,
2013-06-20 19:17:00,72.5,70.1,29.75,East,101,0.0,1.0,92,0.00,,,0.03,VWS V13.01,2013-06-20 17:17:00,
2013-06-20 19:19:00,72.6,70.2,29.75,East,101,0.0,1.0,92,0.00,,,0.03,VWS V13.01,2013-06-20 17:19:00,
2013-06-20 19:22:00,72.6,70.2,29.75,East,101,0.0,1.0,92,0.00,,,0.03,VWS V13.01,2013-06-20 17:22:00,
2013-06-20 19:23:00,72.6,70.2,29.75,East,101,0.0,1.0,92,0.00,,,0.03,VWS V13.01,2013-06-20 17:23:00,
2013-06-20 19:24:00,72.7,70.2,29.75,East,101,0.0,1.0,92,0.00,,,0.03,VWS V13.01,2013-06-20 17:24:00,
2013-06-20 19:27:00,72.8,70.3,29.75,East,101,0.0,0.0,92,0.00,,,0.03,VWS V13.01,2013-06-20 17:27:00,
2013-06-20 19:28:00,72.8,70.3,29.75,East,101,0.0,0.0,92,0.00,,,0.03,VWS V13.01,2013-06-20 17:28:00,
2013-06-20 19:29:00,72.8,70.3,29.75,East,101,0.0,0.0,92,0.00,,,0.03,VWS V13.01,2013-06-20 17:29:00,
2013-06-20 19:32:00,72.9,70.1,29.75,East,101,2.0,2.0,91,0.00,,,0.03,VWS V13.01,2013-06-20 17:32:00,
2013-06-20 19:33:00,73.0,70.2,29.75,East,101,0.0,4.0,91,0.00,,,0.03,VWS V13.01,2013-06-20 17:33:00,
2013-06-20 19:34:00,73.0,70.2,29.75,East,101,0.0,4.0,91,0.00,,,0.03,VWS V13.01,2013-06-20 17:34:00,
2013-06-20 19:37:00,73.1,70.3,29.75,East,101,0.0,2.0,91,0.00,,,0.03,VWS V13.01,2013-06-20 17:37:00,
2013-06-20 19:38:00,73.1,70.3,29.75,East,101,0.0,2.0,91,0.00,,,0.03,VWS V13.01,2013-06-20 17:38:00,
2013-06-20 19:39:00,73.1,70.3,29.75,East,101,2.0,3.0,91,0.00,,,0.03,VWS V13.01,2013-06-20 17:39:00,
2013-06-20 19:42:00,73.1,70.3,29.75,East,101,1.0,6.0,91,0.00,,,0.03,VWS V13.01,2013-06-20 17:42:00,
2013-06-20 19:43:00,73.1,70.3,29.75,East,101,0.0,6.0,91,0.00,,,0.03,VWS V13.01,2013-06-20 17:43:00,
2013-06-20 19:44:00,73.1,70.3,29.75,East,101,0.0,6.0,91,0.00,,,0.03,VWS V13.01,2013-06-20 17:44:00,
2013-06-20 19:47:00,73.2,70.4,29.76,East,101,1.0,2.0,91,0.00,,,0.03,VWS V13.01,2013-06-20 17:47:00,
2013-06-20 19:48:00,73.1,70.3,29.76,East,101,0.0,2.0,91,0.00,,,0.03,VWS V13.01,2013-06-20 17:48:00,
2013-06-20 19:49:00,73.2,70.4,29.76,East,101,0.0,2.0,91,0.00,,,0.03,VWS V13.01,2013-06-20 17:49:00,
2013-06-20 19:52:00,73.2,70.1,29.76,East,101,0.0,2.0,90,0.00,,,0.03,VWS V13.01,2013-06-20 17:52:00,
2013-06-20 19:53:00,73.2,70.1,29.76,East,101,0.0,2.0,90,0.00,,,0.03,VWS V13.01,2013-06-20 17:53:00,
2013-06-20 19:54:00,73.2,70.1,29.76,East,101,3.0,3.0,90,0.00,,,0.03,VWS V13.01,2013-06-20 17:54:00,
2013-06-20 19:57:00,73.3,70.2,29.76,East,101,0.0,3.0,90,0.00,,,0.03,VWS V13.01,2013-06-20 17:57:00,
2013-06-20 19:58:00,73.3,70.2,29.76,East,101,0.0,3.0,90,0.00,,,0.03,VWS V13.01,2013-06-20 17:58:00,
2013-06-20 19:59:00,73.3,70.2,29.76,East,101,3.0,5.0,90,0.00,,,0.03,VWS V13.01,2013-06-20 17:59:00,
2013-06-20 20:00:00,73.3,70.2,29.76,East,101,1.0,5.0,90,0.00,,,0.03,VWS V13.01,2013-06-20 18:00:00,
2013-06-20 20:03:00,73.3,70.2,29.77,East,101,0.0,3.0,90,0.00,,,0.03,VWS V13.01,2013-06-20 18:03:00,
2013-06-20 20:04:00,73.3,70.2,29.77,East,101,0.0,3.0,90,0.00,,,0.03,VWS V13.01,2013-06-20 18:04:00,
2013-06-20 20:05:00,73.3,70.2,29.77,East,101,0.0,3.0,90,0.00,,,0.03,VWS V13.01,2013-06-20 18:05:00,
2013-06-20 20:08:00,73.3,70.2,29.77,East,101,0.0,3.0,90,0.00,,,0.03,VWS V13.01,2013-06-20 18:08:00,
2013-06-20 20:09:00,73.2,70.1,29.77,East,101,0.0,3.0,90,0.00,,,0.03,VWS V13.01,2013-06-20 18:09:00,
2013-06-20 20:10:00,73.2,70.1,29.77,East,101,0.0,3.0,90,0.00,,,0.03,VWS V13.01,2013-06-20 18:10:00,
2013-06-20 20:13:00,73.2,70.1,29.77,East,101,0.0,2.0,90,0.00,,,0.03,VWS V13.01,2013-06-20 18:13:00,
2013-06-20 20:14:00,73.1,70.0,29.77,East,101,0.0,3.0,90,0.00,,,0.03,VWS V13.01,2013-06-20 18:14:00,
2013-06-20 20:15:00,73.2,70.1,29.77,East,101,0.0,3.0,90,0.00,,,0.03,VWS V13.01,2013-06-20 18:15:00,
2013-06-20 20:18:00,73.2,70.1,29.77,East,101,0.0,2.0,90,0.00,,,0.03,VWS V13.01,2013-06-20 18:18:00,
2013-06-20 20:19:00,73.2,70.1,29.77,East,101,0.0,2.0,90,0.00,,,0.03,VWS V13.01,2013-06-20 18:19:00,
2013-06-20 20:20:00,73.1,70.0,29.77,East,101,0.0,2.0,90,0.00,,,0.03,VWS V13.01,2013-06-20 18:20:00,
2013-06-20 20:23:00,73.1,70.0,29.77,East,101,0.0,3.0,90,0.00,,,0.03,VWS V13.01,2013-06-20 18:23:00,
2013-06-20 20:24:00,73.1,70.0,29.77,East,101,0.0,3.0,90,0.00,,,0.03,VWS V13.01,2013-06-20 18:24:00,
2013-06-20 20:25:00,73.1,70.0,29.77,East,101,0.0,3.0,90,0.00,,,0.03,VWS V13.01,2013-06-20 18:25:00,
2013-06-20 20:28:00,73.2,70.1,29.77,East,101,0.0,2.0,90,0.00,,,0.03,VWS V13.01,2013-06-20 18:28:00,
2013-06-20 20:29:00,73.1,70.0,29.77,East,101,0.0,2.0,90,0.00,,,0.03,VWS V13.01,2013-06-20 18:29:00,
2013-06-20 20:30:00,73.2,70.1,29.77,East,101,0.0,2.0,90,0.00,,,0.03,VWS V13.01,2013-06-20 18:30:00,
2013-06-20 20:33:00,73.2,70.1,29.77,East,101,0.0,2.0,90,0.00,,,0.03,VWS V13.01,2013-06-20 18:33:00,
2013-06-20 20:34:00,73.1,70.0,29.77,East,101,0.0,2.0,90,0.00,,,0.03,VWS V13.01,2013-06-20 18:34:00,
2013-06-20 20:35:00,73.1,70.0,29.77,East,101,0.0,2.0,90,0.00,,,0.03,VWS V13.01,2013-06-20 18:35:00,
2013-06-20 20:38:00,73.1,70.0,29.77,East,101,0.0,1.0,90,0.00,,,0.03,VWS V13.01,2013-06-20 18:38:00,
2013-06-20 20:39:00,73.1,70.0,29.77,East,101,1.0,1.0,90,0.00,,,0.03,VWS V13.01,2013-06-20 18:39:00,
2013-06-20 20:40:00,73.1,70.0,29.77,East,101,0.0,1.0,90,0.00,,,0.03,VWS V13.01,2013-06-20 18:40:00,
2013-06-20 20:43:00,73.0,69.6,29.77,East,101,3.0,3.0,89,0.00,,,0.03,VWS V13.01,2013-06-20 18:43:00,
2013-06-20 20:44:00,73.0,69.6,29.77,East,101,2.0,3.0,89,0.00,,,0.03,VWS V13.01,2013-06-20 18:44:00,
2013-06-20 20:45:00,73.0,69.9,29.76,East,101,0.0,3.0,90,0.00,,,0.03,VWS V13.01,2013-06-20 18:45:00,
2013-06-20 20:48:00,73.0,69.9,29.76,East,101,0.0,1.0,90,0.00,,,0.03,VWS V13.01,2013-06-20 18:48:00,
2013-06-20 20:49:00,73.0,69.9,29.76,East,101,0.0,1.0,90,0.00,,,0.03,VWS V13.01,2013-06-20 18:49:00,
2013-06-20 20:50:00,73.0,69.9,29.76,East,101,0.0,1.0,90,0.00,,,0.03,VWS V13.01,2013-06-20 18:50:00,
2013-06-20 20:53:00,73.0,69.9,29.76,East,101,0.0,2.0,90,0.00,,,0.03,VWS V13.01,2013-06-20 18:53:00,
2013-06-20 20:54:00,73.0,69.9,29.76,East,101,0.0,2.0,90,0.00,,,0.03,VWS V13.01,2013-06-20 18:54:00,
2013-06-20 20:56:00,72.9,69.8,29.76,East,101,0.0,2.0,90,0.00,,,0.03,VWS V13.01,2013-06-20 18:56:00,
2013-06-20 20:58:00,72.9,69.8,29.76,East,101,0.0,2.0,90,0.00,,,0.03,VWS V13.01,2013-06-20 18:58:00,
2013-06-20 20:59:00,72.9,69.8,29.76,East,101,0.0,2.0,90,0.00,,,0.03,VWS V13.01,2013-06-20 18:59:00,
2013-06-20 21:01:00,72.9,69.8,29.77,East,101,0.0,2.0,90,0.00,,,0.03,VWS V13.01,2013-06-20 19:01:00,
2013-06-20 21:04:00,72.9,69.8,29.77,East,101,2.0,2.0,90,0.00,,,0.03,VWS V13.01,2013-06-20 19:04:00,
2013-06-20 21:05:00,72.8,69.7,29.77,East,101,0.0,3.0,90,0.00,,,0.03,VWS V13.01,2013-06-20 19:05:00,
2013-06-20 21:06:00,72.9,69.8,29.77,East,101,1.0,3.0,90,0.00,,,0.03,VWS V13.01,2013-06-20 19:06:00,
2013-06-20 21:09:00,72.8,69.7,29.77,East,101,0.0,1.0,90,0.00,,,0.03,VWS V13.01,2013-06-20 19:09:00,
2013-06-20 21:10:00,72.8,69.7,29.77,East,101,0.0,1.0,90,0.00,,,0.03,VWS V13.01,2013-06-20 19:10:00,
2013-06-20 21:11:00,72.8,69.7,29.77,East,101,0.0,1.0,90,0.00,,,0.03,VWS V13.01,2013-06-20 19:11:00,
2013-06-20 21:14:00,72.8,69.7,29.77,East,101,0.0,1.0,90,0.00,,,0.03,VWS V13.01,2013-06-20 19:14:00,
2013-06-20 21:15:00,72.8,69.7,29.77,East,101,0.0,1.0,90,0.00,,,0.03,VWS V13.01,2013-06-20 19:15:00,
2013-06-20 21:16:00,72.7,69.6,29.75,East,101,0.0,0.0,90,0.00,,,0.03,VWS V13.01,2013-06-20 19:16:00,
2013-06-20 21:19:00,72.7,69.6,29.75,East,101,0.0,0.0,90,0.00,,,0.03,VWS V13.01,2013-06-20 19:19:00,
2013-06-20 21:20:00,72.7,69.6,29.75,East,101,0.0,0.0,90,0.00,,,0.03,VWS V13.01,2013-06-20 19:20:00,
2013-06-20 21:21:00,72.6,69.5,29.75,East,101,0.0,0.0,90,0.00,,,0.03,VWS V13.01,2013-06-20 19:21:00,
2013-06-20 21:24:00,72.6,69.5,29.75,East,101,0.0,2.0,90,0.00,,,0.03,VWS V13.01,2013-06-20 19:24:00,
2013-06-20 21:25:00,72.6,69.5,29.75,East,101,0.0,2.0,90,0.00,,,0.03,VWS V13.01,2013-06-20 19:25:00,
2013-06-20 21:27:00,72.6,69.5,29.75,East,101,0.0,0.0,90,0.00,,,0.03,VWS V13.01,2013-06-20 19:27:00,
2013-06-20 21:29:00,72.6,69.5,29.75,East,101,0.0,1.0,90,0.00,,,0.03,VWS V13.01,2013-06-20 19:29:00,
2013-06-20 21:30:00,72.6,69.5,29.75,East,101,2.0,3.0,90,0.00,,,0.03,VWS V13.01,2013-06-20 19:30:00,
2013-06-20 21:32:00,72.5,69.4,29.74,East,101,0.0,1.0,90,0.00,,,0.03,VWS V13.01,2013-06-20 19:32:00,
2013-06-20 21:34:00,72.5,69.4,29.74,East,101,2.0,2.0,90,0.00,,,0.03,VWS V13.01,2013-06-20 19:34:00,
2013-06-20 21:35:00,72.5,69.4,29.74,East,101,1.0,3.0,90,0.00,,,0.03,VWS V13.01,2013-06-20 19:35:00,
2013-06-20 21:37:00,72.4,69.3,29.74,East,101,0.0,2.0,90,0.00,,,0.03,VWS V13.01,2013-06-20 19:37:00,
2013-06-20 21:39:00,72.4,69.3,29.74,East,101,0.0,2.0,90,0.00,,,0.03,VWS V13.01,2013-06-20 19:39:00,
2013-06-20 21:40:00,72.4,69.3,29.74,East,101,1.0,2.0,90,0.00,,,0.03,VWS V13.01,2013-06-20 19:40:00,
2013-06-20 21:42:00,72.4,69.6,29.74,East,101,3.0,3.0,91,0.00,,,0.03,VWS V13.01,2013-06-20 19:42:00,
2013-06-20 21:44:00,72.3,69.5,29.74,East,101,0.0,4.0,91,0.00,,,0.03,VWS V13.01,2013-06-20 19:44:00,
2013-06-20 21:45:00,72.3,69.5,29.74,East,101,1.0,4.0,91,0.00,,,0.03,VWS V13.01,2013-06-20 19:45:00,
2013-06-20 21:47:00,72.2,69.4,29.73,East,101,1.0,3.0,91,0.00,,,0.03,VWS V13.01,2013-06-20 19:47:00,
2013-06-20 21:49:00,72.1,69.3,29.73,East,101,0.0,3.0,91,0.00,,,0.03,VWS V13.01,2013-06-20 19:49:00,
2013-06-20 21:50:00,72.1,69.3,29.73,East,101,1.0,3.0,91,0.00,,,0.03,VWS V13.01,2013-06-20 19:50:00,
2013-06-20 21:52:00,72.1,69.3,29.73,East,101,2.0,3.0,91,0.00,,,0.03,VWS V13.01,2013-06-20 19:52:00,
2013-06-20 21:54:00,72.0,69.2,29.73,East,101,3.0,6.0,91,0.00,,,0.03,VWS V13.01,2013-06-20 19:54:00,
2013-06-20 21:55:00,72.0,69.2,29.73,East,101,4.0,6.0,91,0.00,,,0.03,VWS V13.01,2013-06-20 19:55:00,
2013-06-20 21:56:00,71.9,69.1,29.73,East,101,4.0,6.0,91,0.00,,,0.03,VWS V13.01,2013-06-20 19:56:00,
2013-06-20 21:57:00,71.8,69.0,29.73,East,101,0.0,3.0,91,0.00,,,0.03,VWS V13.01,2013-06-20 19:57:00,
2013-06-20 21:59:00,71.8,69.0,29.73,East,101,1.0,4.0,91,0.00,,,0.03,VWS V13.01,2013-06-20 19:59:00,
2013-06-20 22:00:00,71.8,69.0,29.73,East,101,1.0,4.0,91,0.00,,,0.03,VWS V13.01,2013-06-20 20:00:00,
2013-06-20 22:01:00,71.7,68.9,29.71,East,101,1.0,4.0,91,0.00,,,0.03,VWS V13.01,2013-06-20 20:01:00,
2013-06-20 22:02:00,71.7,68.9,29.71,East,101,0.0,3.0,91,0.00,,,0.03,VWS V13.01,2013-06-20 20:02:00,
2013-06-20 22:05:00,71.6,69.2,29.71,East,101,4.0,4.0,92,0.00,,,0.03,VWS V13.01,2013-06-20 20:05:00,
2013-06-20 22:06:00,71.5,69.1,29.71,East,101,3.0,4.0,92,0.00,,,0.03,VWS V13.01,2013-06-20 20:06:00,
2013-06-20 22:07:00,71.5,69.1,29.71,East,101,0.0,3.0,92,0.00,,,0.03,VWS V13.01,2013-06-20 20:07:00,
2013-06-20 22:10:00,71.4,69.0,29.71,East,101,4.0,7.0,92,0.00,,,0.03,VWS V13.01,2013-06-20 20:10:00,
2013-06-20 22:11:00,71.3,68.9,29.71,East,101,2.0,7.0,92,0.00,,,0.03,VWS V13.01,2013-06-20 20:11:00,
2013-06-20 22:12:00,71.3,68.9,29.71,East,101,2.0,5.0,92,0.00,,,0.03,VWS V13.01,2013-06-20 20:12:00,
2013-06-20 22:15:00,71.2,68.8,29.71,East,101,0.0,5.0,92,0.00,,,0.03,VWS V13.01,2013-06-20 20:15:00,
2013-06-20 22:16:00,71.2,68.8,29.72,East,101,0.0,5.0,92,0.00,,,0.03,VWS V13.01,2013-06-20 20:16:00,
2013-06-20 22:17:00,71.2,68.8,29.72,East,101,0.0,2.0,92,0.00,,,0.03,VWS V13.01,2013-06-20 20:17:00,
2013-06-20 22:20:00,71.1,68.7,29.72,East,101,0.0,2.0,92,0.00,,,0.03,VWS V13.01,2013-06-20 20:20:00,
2013-06-20 22:21:00,71.0,68.6,29.72,East,101,0.0,2.0,92,0.00,,,0.03,VWS V13.01,2013-06-20 20:21:00,
2013-06-20 22:22:00,71.0,68.6,29.72,East,101,0.0,2.0,92,0.00,,,0.03,VWS V13.01,2013-06-20 20:22:00,
2013-06-20 22:25:00,70.9,68.8,29.72,East,101,0.0,2.0,93,0.00,,,0.03,VWS V13.01,2013-06-20 20:25:00,
2013-06-20 22:26:00,70.9,68.8,29.72,East,101,0.0,2.0,93,0.00,,,0.03,VWS V13.01,2013-06-20 20:26:00,
2013-06-20 22:27:00,70.8,68.7,29.72,East,101,0.0,0.0,93,0.00,,,0.03,VWS V13.01,2013-06-20 20:27:00,
2013-06-20 22:30:00,70.8,68.7,29.72,East,101,1.0,2.0,93,0.00,,,0.03,VWS V13.01,2013-06-20 20:30:00,
2013-06-20 22:31:00,70.8,68.7,29.72,East,101,0.0,2.0,93,0.00,,,0.03,VWS V13.01,2013-06-20 20:31:00,
2013-06-20 22:32:00,70.7,68.6,29.72,East,101,0.0,1.0,93,0.00,,,0.03,VWS V13.01,2013-06-20 20:32:00,
2013-06-20 22:35:00,70.6,68.5,29.72,East,101,2.0,2.0,93,0.00,,,0.03,VWS V13.01,2013-06-20 20:35:00,
2013-06-20 22:36:00,70.6,68.5,29.72,East,101,0.0,0.0,93,0.00,,,0.03,VWS V13.01,2013-06-20 20:36:00,
2013-06-20 22:37:00,70.5,68.4,29.72,East,101,0.0,1.0,93,0.00,,,0.03,VWS V13.01,2013-06-20 20:37:00,
2013-06-20 22:40:00,70.4,68.3,29.72,East,101,0.0,2.0,93,0.00,,,0.03,VWS V13.01,2013-06-20 20:40:00,
2013-06-20 22:41:00,70.4,68.3,29.72,East,101,2.0,3.0,93,0.00,,,0.03,VWS V13.01,2013-06-20 20:41:00,
2013-06-20 22:43:00,70.3,68.2,29.72,East,101,0.0,3.0,93,0.00,,,0.03,VWS V13.01,2013-06-20 20:43:00,
2013-06-20 22:45:00,70.3,68.2,29.72,East,101,0.0,3.0,93,0.00,,,0.03,VWS V13.01,2013-06-20 20:45:00,
2013-06-20 22:46:00,70.2,68.1,29.72,East,101,3.0,3.0,93,0.00,,,0.03,VWS V13.01,2013-06-20 20:46:00,
2013-06-20 22:48:00,70.1,68.0,29.72,East,101,1.0,3.0,93,0.00,,,0.03,VWS V13.01,2013-06-20 20:48:00,
2013-06-20 22:50:00,70.1,68.0,29.72,East,101,2.0,3.0,93,0.00,,,0.03,VWS V13.01,2013-06-20 20:50:00,
2013-06-20 22:51:00,70.1,68.0,29.72,East,101,0.0,3.0,93,0.00,,,0.03,VWS V13.01,2013-06-20 20:51:00,
2013-06-20 22:53:00,70.0,67.9,29.72,East,101,0.0,3.0,93,0.00,,,0.03,VWS V13.01,2013-06-20 20:53:00,
2013-06-20 22:55:00,69.9,67.8,29.72,East,101,0.0,3.0,93,0.00,,,0.03,VWS V13.01,2013-06-20 20:55:00,
2013-06-20 22:56:00,69.9,67.8,29.72,East,101,3.0,3.0,93,0.00,,,0.03,VWS V13.01,2013-06-20 20:56:00,
2013-06-20 22:58:00,69.8,67.7,29.72,East,101,0.0,2.0,93,0.00,,,0.03,VWS V13.01,2013-06-20 20:58:00,
2013-06-20 23:00:00,69.8,67.7,29.74,East,101,0.0,2.0,93,0.00,,,0.03,VWS V13.01,2013-06-20 21:00:00,
2013-06-20 23:01:00,69.7,67.6,29.74,East,101,1.0,2.0,93,0.00,,,0.03,VWS V13.01,2013-06-20 21:01:00,
2013-06-20 23:03:00,69.7,67.6,29.74,East,101,0.0,1.0,93,0.00,,,0.03,VWS V13.01,2013-06-20 21:03:00,
2013-06-20 23:05:00,69.6,67.8,29.74,East,101,0.0,4.0,94,0.00,,,0.03,VWS V13.01,2013-06-20 21:05:00,
2013-06-20 23:06:00,69.6,67.8,29.74,East,101,2.0,4.0,94,0.00,,,0.03,VWS V13.01,2013-06-20 21:06:00,
2013-06-20 23:07:00,69.5,67.7,29.74,East,101,0.0,2.0,94,0.00,,,0.03,VWS V13.01,2013-06-20 21:07:00,
2013-06-20 23:08:00,69.5,67.7,29.74,East,101,1.0,2.0,94,0.00,,,0.03,VWS V13.01,2013-06-20 21:08:00,
2013-06-20 23:10:00,69.4,67.6,29.74,East,101,0.0,2.0,94,0.00,,,0.03,VWS V13.01,2013-06-20 21:10:00,
2013-06-20 23:11:00,69.4,67.6,29.74,East,101,0.0,2.0,94,0.00,,,0.03,VWS V13.01,2013-06-20 21:11:00,
2013-06-20 23:12:00,69.4,67.6,29.74,East,101,0.0,0.0,94,0.00,,,0.03,VWS V13.01,2013-06-20 21:12:00,
2013-06-20 23:13:00,69.3,67.5,29.74,East,101,0.0,0.0,94,0.00,,,0.03,VWS V13.01,2013-06-20 21:13:00,
2013-06-20 23:16:00,69.3,67.5,29.73,East,101,0.0,2.0,94,0.00,,,0.03,VWS V13.01,2013-06-20 21:16:00,
2013-06-20 23:17:00,69.2,67.4,29.73,East,101,0.0,2.0,94,0.00,,,0.03,VWS V13.01,2013-06-20 21:17:00,
2013-06-20 23:18:00,69.2,67.4,29.73,East,101,0.0,2.0,94,0.00,,,0.03,VWS V13.01,2013-06-20 21:18:00,
2013-06-20 23:21:00,69.1,67.3,29.73,East,101,0.0,2.0,94,0.00,,,0.03,VWS V13.01,2013-06-20 21:21:00,
2013-06-20 23:22:00,69.1,67.3,29.73,East,101,0.0,0.0,94,0.00,,,0.03,VWS V13.01,2013-06-20 21:22:00,
2013-06-20 23:23:00,69.0,67.2,29.73,East,101,0.0,0.0,94,0.00,,,0.03,VWS V13.01,2013-06-20 21:23:00,
2013-06-20 23:26:00,69.0,67.2,29.73,East,101,0.0,0.0,94,0.00,,,0.03,VWS V13.01,2013-06-20 21:26:00,
2013-06-20 23:27:00,69.0,67.2,29.73,East,101,0.0,0.0,94,0.00,,,0.03,VWS V13.01,2013-06-20 21:27:00,
2013-06-20 23:29:00,68.9,67.1,29.73,East,101,0.0,1.0,94,0.00,,,0.03,VWS V13.01,2013-06-20 21:29:00,
2013-06-20 23:31:00,68.9,67.1,29.73,East,101,0.0,1.0,94,0.00,,,0.03,VWS V13.01,2013-06-20 21:31:00,
2013-06-20 23:32:00,68.9,67.4,29.73,East,101,0.0,2.0,95,0.00,,,0.03,VWS V13.01,2013-06-20 21:32:00,
2013-06-20 23:34:00,68.8,67.3,29.73,East,101,0.0,2.0,95,0.00,,,0.03,VWS V13.01,2013-06-20 21:34:00,
2013-06-20 23:36:00,68.8,67.3,29.73,East,101,0.0,2.0,95,0.00,,,0.03,VWS V13.01,2013-06-20 21:36:00,
2013-06-20 23:37:00,68.8,67.3,29.73,East,101,0.0,0.0,95,0.00,,,0.03,VWS V13.01,2013-06-20 21:37:00,
2013-06-20 23:38:00,68.8,67.3,29.73,East,101,0.0,0.0,95,0.00,,,0.03,VWS V13.01,2013-06-20 21:38:00,
2013-06-20 23:39:00,68.7,67.2,29.73,East,101,0.0,1.0,95,0.00,,,0.03,VWS V13.01,2013-06-20 21:39:00,
2013-06-20 23:41:00,68.7,67.2,29.73,East,101,3.0,3.0,95,0.00,,,0.03,VWS V13.01,2013-06-20 21:41:00,
2013-06-20 23:42:00,68.6,67.1,29.73,East,101,0.0,3.0,95,0.00,,,0.03,VWS V13.01,2013-06-20 21:42:00,
2013-06-20 23:43:00,68.6,67.1,29.73,East,101,3.0,3.0,95,0.00,,,0.03,VWS V13.01,2013-06-20 21:43:00,
2013-06-20 23:44:00,68.6,67.1,29.73,East,101,2.0,3.0,95,0.00,,,0.03,VWS V13.01,2013-06-20 21:44:00,
2013-06-20 23:46:00,68.6,67.1,29.73,East,101,2.0,4.0,95,0.00,,,0.03,VWS V13.01,2013-06-20 21:46:00,
2013-06-20 23:47:00,68.6,67.1,29.73,East,101,2.0,4.0,95,0.00,,,0.03,VWS V13.01,2013-06-20 21:47:00,
2013-06-20 23:48:00,68.5,67.0,29.73,East,101,1.0,4.0,95,0.00,,,0.03,VWS V13.01,2013-06-20 21:48:00,
2013-06-20 23:49:00,68.5,67.0,29.73,East,101,1.0,4.0,95,0.00,,,0.03,VWS V13.01,2013-06-20 21:49:00,
2013-06-20 23:51:00,68.5,67.0,29.73,East,101,2.0,3.0,95,0.00,,,0.03,VWS V13.01,2013-06-20 21:51:00,
2013-06-20 23:52:00,68.4,66.9,29.73,East,101,3.0,4.0,95,0.00,,,0.03,VWS V13.01,2013-06-20 21:52:00,
2013-06-20 23:53:00,68.4,66.9,29.73,East,101,3.0,6.0,95,0.00,,,0.03,VWS V13.01,2013-06-20 21:53:00,
2013-06-20 23:54:00,68.4,66.9,29.73,East,101,1.0,6.0,95,0.00,,,0.03,VWS V13.01,2013-06-20 21:54:00,
2013-06-20 23:56:00,68.3,66.8,29.73,East,101,0.0,0.0,95,0.00,,,0.03,VWS V13.01,2013-06-20 21:56:00,
2013-06-20 23:57:00,68.3,66.8,29.73,East,101,1.0,2.0,95,0.00,,,0.03,VWS V13.01,2013-06-20 21:57:00,
2013-06-20 23:58:00,68.3,66.8,29.73,East,101,0.0,2.0,95,0.00,,,0.03,VWS V13.01,2013-06-20 21:58:00,
2013-06-20 23:59:00,68.3,66.8,29.73,East,101,0.0,2.0,95,0.00,,,0.03,VWS V13.01,2013-06-20 21:59:00,